Wetterdaten: Sonntag, 17.03.2019
Datum Zeit Temp. Aussen Temp. o. S. +5cm Feuchte Auss Luftdruck Regen Sonnenschein Regendauer Solar Windben Empfang
17.03.2019 00:00 11,1 C 10,6 C 10,0 C 79 % 999,0 hPa 0,0 l/m 0 min 0 min 0 W/m 32,2 km/h (5 Bft) 97,87 %
17.03.2019 00:02 11,1 C 10,6 C 10,0 C 79 % 999,1 hPa 0,0 l/m 0 min 0 min 0 W/m 32,2 km/h (5 Bft) 97,06 %
17.03.2019 00:04 11,1 C 10,6 C 10,0 C 79 % 999,0 hPa 0,0 l/m 0 min 0 min 0 W/m 25,7 km/h (4 Bft) 95,74 %
17.03.2019 00:08 11,1 C 10,6 C 10,0 C 78 % 999,1 hPa 0,0 l/m 0 min 0 min 0 W/m 41,8 km/h (6 Bft) 97,85 %
17.03.2019 00:10 11,2 C 10,6 C 10,0 C 79 % 999,0 hPa 0,0 l/m 0 min 0 min 0 W/m 29,0 km/h (5 Bft) 97,87 %
17.03.2019 00:12 11,2 C 10,6 C 10,0 C 78 % 999,1 hPa 0,0 l/m 0 min 0 min 0 W/m 35,4 km/h (5 Bft) 95,74 %
17.03.2019 00:14 11,2 C 10,6 C 10,0 C 78 % 999,0 hPa 0,0 l/m 0 min 0 min 0 W/m 32,2 km/h (5 Bft) 95,74 %
17.03.2019 00:16 11,2 C 10,6 C 10,0 C 78 % 998,9 hPa 0,0 l/m 0 min 0 min 0 W/m 35,4 km/h (5 Bft) 97,87 %
17.03.2019 00:18 11,2 C 10,6 C 10,0 C 78 % 998,9 hPa 0,0 l/m 0 min 0 min 0 W/m 32,2 km/h (5 Bft) 100,00 %
17.03.2019 00:20 11,2 C 10,6 C 10,0 C 78 % 999,0 hPa 0,0 l/m 0 min 0 min 0 W/m 22,5 km/h (4 Bft) 100,00 %
17.03.2019 00:22 11,2 C 10,6 C 10,0 C 78 % 998,9 hPa 0,0 l/m 0 min 0 min 0 W/m 25,7 km/h (4 Bft) 100,00 %
17.03.2019 00:24 11,2 C 10,6 C 10,0 C 78 % 998,8 hPa 0,0 l/m 0 min 0 min 0 W/m 25,7 km/h (4 Bft) 97,87 %
17.03.2019 00:26 11,2 C 10,6 C 10,0 C 78 % 999,0 hPa 0,0 l/m 0 min 0 min 0 W/m 32,2 km/h (5 Bft) 97,87 %
17.03.2019 00:28 11,2 C 10,6 C 10,0 C 78 % 998,9 hPa 0,0 l/m 0 min 0 min 0 W/m 19,3 km/h (3 Bft) 100,00 %
17.03.2019 00:30 11,2 C 10,6 C 10,0 C 78 % 998,8 hPa 0,0 l/m 0 min 0 min 0 W/m 25,7 km/h (4 Bft) 100,00 %
17.03.2019 00:32 11,2 C 10,6 C 10,0 C 78 % 998,7 hPa 0,0 l/m 0 min 0 min 0 W/m 38,6 km/h (5 Bft) 97,87 %
17.03.2019 00:34 11,2 C 10,6 C 10,0 C 78 % 998,8 hPa 0,0 l/m 0 min 0 min 0 W/m 35,4 km/h (5 Bft) 95,74 %
17.03.2019 00:36 11,2 C 10,6 C 10,0 C 78 % 998,7 hPa 0,0 l/m 0 min 0 min 0 W/m 29,0 km/h (5 Bft) 98,31 %
17.03.2019 00:38 11,2 C 10,6 C 10,0 C 78 % 998,7 hPa 0,0 l/m 0 min 0 min 0 W/m 32,2 km/h (5 Bft) 94,29 %
17.03.2019 00:40 11,2 C 10,6 C 10,0 C 78 % 998,7 hPa 0,0 l/m 0 min 0 min 0 W/m 25,7 km/h (4 Bft) 95,74 %
17.03.2019 00:42 11,2 C 10,6 C 10,0 C 78 % 998,7 hPa 0,0 l/m 0 min 0 min 0 W/m 25,7 km/h (4 Bft) 95,65 %
17.03.2019 00:44 11,2 C 10,6 C 10,0 C 79 % 998,7 hPa 0,0 l/m 0 min 0 min 0 W/m 22,5 km/h (4 Bft) 97,87 %
17.03.2019 00:46 11,2 C 10,6 C 10,0 C 79 % 998,7 hPa 0,0 l/m 0 min 0 min 0 W/m 29,0 km/h (5 Bft) 95,74 %
17.03.2019 00:48 11,2 C 10,6 C 10,0 C 79 % 998,7 hPa 0,0 l/m 0 min 0 min 0 W/m 22,5 km/h (4 Bft) 95,74 %
17.03.2019 00:50 11,2 C 10,6 C 10,0 C 79 % 998,6 hPa 0,0 l/m 0 min 0 min 0 W/m 22,5 km/h (4 Bft) 93,62 %
17.03.2019 00:52 11,2 C 10,6 C 10,0 C 78 % 998,7 hPa 0,0 l/m 0 min 0 min 0 W/m 29,0 km/h (5 Bft) 95,65 %
17.03.2019 00:54 11,2 C 10,6 C 10,0 C 78 % 998,5 hPa 0,0 l/m 0 min 0 min 0 W/m 25,7 km/h (4 Bft) 95,74 %
17.03.2019 00:56 11,2 C 10,6 C 10,0 C 78 % 998,5 hPa 0,0 l/m 0 min 0 min 0 W/m 38,6 km/h (5 Bft) 93,62 %
17.03.2019 00:58 11,2 C 10,6 C 10,0 C 78 % 998,6 hPa 0,0 l/m 0 min 0 min 0 W/m 29,0 km/h (5 Bft) 95,74 %
17.03.2019 01:00 11,2 C 10,6 C 10,0 C 78 % 998,5 hPa 0,0 l/m 0 min 0 min 0 W/m 29,0 km/h (5 Bft) 93,62 %
17.03.2019 01:02 11,2 C 10,6 C 10,0 C 78 % 998,5 hPa 0,0 l/m 0 min 0 min 0 W/m 38,6 km/h (5 Bft) 95,74 %
17.03.2019 01:04 11,2 C 10,6 C 10,0 C 78 % 998,5 hPa 0,0 l/m 0 min 0 min 0 W/m 19,3 km/h (3 Bft) 95,65 %
17.03.2019 01:06 11,2 C 10,6 C 10,0 C 78 % 998,3 hPa 0,0 l/m 0 min 0 min 0 W/m 35,4 km/h (5 Bft) 96,61 %
17.03.2019 01:08 11,2 C 10,6 C 10,0 C 78 % 998,3 hPa 0,0 l/m 0 min 0 min 0 W/m 29,0 km/h (5 Bft) 94,29 %
17.03.2019 01:10 11,2 C 10,6 C 10,0 C 78 % 998,4 hPa 0,0 l/m 0 min 0 min 0 W/m 25,7 km/h (4 Bft) 95,74 %
17.03.2019 01:12 11,2 C 10,6 C 10,0 C 78 % 998,4 hPa 0,0 l/m 0 min 0 min 0 W/m 32,2 km/h (5 Bft) 97,87 %
17.03.2019 01:14 11,2 C 10,6 C 10,0 C 78 % 998,4 hPa 0,0 l/m 0 min 0 min 0 W/m 22,5 km/h (4 Bft) 95,74 %
17.03.2019 01:16 11,2 C 10,6 C 10,0 C 78 % 998,4 hPa 0,0 l/m 0 min 0 min 0 W/m 25,7 km/h (4 Bft) 95,65 %
17.03.2019 01:18 11,2 C 10,6 C 10,0 C 78 % 998,2 hPa 0,0 l/m 0 min 0 min 0 W/m 32,2 km/h (5 Bft) 93,62 %
17.03.2019 01:20 11,2 C 10,6 C 10,0 C 78 % 998,1 hPa 0,0 l/m 0 min 0 min 0 W/m 22,5 km/h (4 Bft) 93,62 %
17.03.2019 01:22 11,2 C 10,6 C 10,0 C 78 % 998,2 hPa 0,0 l/m 0 min 0 min 0 W/m 22,5 km/h (4 Bft) 93,62 %
17.03.2019 01:24 11,1 C 10,6 C 10,0 C 78 % 998,2 hPa 0,0 l/m 0 min 0 min 0 W/m 25,7 km/h (4 Bft) 97,87 %
17.03.2019 01:26 11,1 C 10,6 C 10,0 C 78 % 998,1 hPa 0,0 l/m 0 min 0 min 0 W/m 19,3 km/h (3 Bft) 97,87 %
17.03.2019 01:28 11,1 C 10,6 C 10,0 C 79 % 998,1 hPa 0,0 l/m 0 min 0 min 0 W/m 16,1 km/h (3 Bft) 97,83 %
17.03.2019 01:30 11,1 C 10,6 C 10,0 C 79 % 998,0 hPa 0,0 l/m 0 min 0 min 0 W/m 16,1 km/h (3 Bft) 97,87 %
17.03.2019 01:32 11,1 C 10,6 C 10,0 C 79 % 997,9 hPa 0,0 l/m 0 min 0 min 0 W/m 22,5 km/h (4 Bft) 97,87 %
17.03.2019 01:34 11,1 C 10,6 C 10,0 C 78 % 998,0 hPa 0,0 l/m 0 min 0 min 0 W/m 25,7 km/h (4 Bft) 95,74 %
17.03.2019 01:36 11,1 C 10,6 C 10,0 C 78 % 998,0 hPa 0,0 l/m 0 min 0 min 0 W/m 38,6 km/h (5 Bft) 98,28 %
17.03.2019 01:38 11,1 C 10,6 C 10,0 C 78 % 997,9 hPa 0,0 l/m 0 min 0 min 0 W/m 25,7 km/h (4 Bft) 97,22 %
17.03.2019 01:40 11,1 C 10,6 C 10,0 C 78 % 997,8 hPa 0,0 l/m 0 min 0 min 0 W/m 25,7 km/h (4 Bft) 100,00 %
17.03.2019 01:42 11,1 C 10,6 C 10,0 C 78 % 997,8 hPa 0,0 l/m 0 min 0 min 0 W/m 22,5 km/h (4 Bft) 100,00 %
17.03.2019 01:44 11,1 C 10,6 C 10,0 C 78 % 997,8 hPa 0,0 l/m 0 min 0 min 0 W/m 25,7 km/h (4 Bft) 100,00 %
17.03.2019 01:46 11,1 C 10,6 C 10,0 C 78 % 997,7 hPa 0,0 l/m 0 min 0 min 0 W/m 22,5 km/h (4 Bft) 100,00 %
17.03.2019 01:48 11,1 C 10,6 C 10,0 C 78 % 997,8 hPa 0,0 l/m 0 min 0 min 0 W/m 16,1 km/h (3 Bft) 100,00 %
17.03.2019 01:50 11,1 C 10,6 C 10,0 C 78 % 997,8 hPa 0,0 l/m 0 min 0 min 0 W/m 32,2 km/h (5 Bft) 100,00 %
17.03.2019 01:52 11,0 C 10,6 C 10,0 C 79 % 997,7 hPa 0,0 l/m 0 min 0 min 0 W/m 25,7 km/h (4 Bft) 97,83 %
17.03.2019 01:54 11,0 C 10,6 C 9,4 C 79 % 997,8 hPa 0,0 l/m 0 min 0 min 0 W/m 16,1 km/h (3 Bft) 100,00 %
17.03.2019 01:56 11,0 C 10,6 C 10,0 C 79 % 997,8 hPa 0,0 l/m 0 min 0 min 0 W/m 25,7 km/h (4 Bft) 100,00 %
17.03.2019 01:58 11,0 C 10,6 C 10,0 C 79 % 997,7 hPa 0,0 l/m 0 min 0 min 0 W/m 22,5 km/h (4 Bft) 100,00 %
17.03.2019 02:00 11,0 C 10,6 C 9,4 C 79 % 997,7 hPa 0,0 l/m 0 min 0 min 0 W/m 16,1 km/h (3 Bft) 100,00 %
17.03.2019 02:02 11,0 C 10,6 C 10,0 C 78 % 997,7 hPa 0,0 l/m 0 min 0 min 0 W/m 29,0 km/h (5 Bft) 100,00 %
17.03.2019 02:04 10,9 C 10,6 C 10,0 C 78 % 997,7 hPa 0,0 l/m 0 min 0 min 0 W/m 32,2 km/h (5 Bft) 100,00 %
17.03.2019 02:06 10,9 C 10,6 C 10,0 C 78 % 997,7 hPa 0,0 l/m 0 min 0 min 0 W/m 19,3 km/h (3 Bft) 100,00 %
17.03.2019 02:08 10,9 C 10,6 C 10,0 C 78 % 997,6 hPa 0,0 l/m 0 min 0 min 0 W/m 22,5 km/h (4 Bft) 100,00 %
17.03.2019 02:10 10,9 C 10,0 C 9,4 C 78 % 997,5 hPa 0,0 l/m 0 min 0 min 0 W/m 32,2 km/h (5 Bft) 100,00 %
17.03.2019 02:12 10,9 C 10,0 C 9,4 C 78 % 997,4 hPa 0,0 l/m 0 min 0 min 0 W/m 22,5 km/h (4 Bft) 100,00 %
17.03.2019 02:14 10,9 C 10,0 C 9,4 C 78 % 997,4 hPa 0,0 l/m 0 min 0 min 0 W/m 19,3 km/h (3 Bft) 100,00 %
17.03.2019 02:16 10,9 C 10,0 C 9,4 C 78 % 997,4 hPa 0,0 l/m 0 min 0 min 0 W/m 32,2 km/h (5 Bft) 100,00 %
17.03.2019 02:18 10,9 C 10,0 C 9,4 C 78 % 997,4 hPa 0,0 l/m 0 min 0 min 0 W/m 32,2 km/h (5 Bft) 100,00 %
17.03.2019 02:20 10,9 C 10,0 C 9,4 C 78 % 997,5 hPa 0,0 l/m 0 min 0 min 0 W/m 25,7 km/h (4 Bft) 100,00 %
17.03.2019 02:22 10,8 C 10,0 C 9,4 C 78 % 997,3 hPa 0,0 l/m 0 min 0 min 0 W/m 35,4 km/h (5 Bft) 97,87 %
17.03.2019 02:24 10,8 C 10,0 C 9,4 C 78 % 997,3 hPa 0,0 l/m 0 min 0 min 0 W/m 41,8 km/h (6 Bft) 100,00 %
17.03.2019 02:26 10,8 C 10,0 C 9,4 C 78 % 997,4 hPa 0,0 l/m 0 min 0 min 0 W/m 29,0 km/h (5 Bft) 100,00 %
17.03.2019 02:28 10,8 C 10,0 C 9,4 C 78 % 997,3 hPa 0,0 l/m 0 min 0 min 0 W/m 25,7 km/h (4 Bft) 100,00 %
17.03.2019 02:30 10,8 C 10,0 C 9,4 C 79 % 997,2 hPa 0,0 l/m 0 min 0 min 0 W/m 25,7 km/h (4 Bft) 100,00 %
17.03.2019 02:32 10,7 C 10,0 C 9,4 C 79 % 997,3 hPa 0,0 l/m 0 min 0 min 0 W/m 25,7 km/h (4 Bft) 100,00 %
17.03.2019 02:34 10,7 C 10,0 C 9,4 C 79 % 997,2 hPa 0,0 l/m 0 min 0 min 0 W/m 22,5 km/h (4 Bft) 100,00 %
17.03.2019 02:36 10,7 C 10,0 C 9,4 C 79 % 997,3 hPa 0,0 l/m 0 min 0 min 0 W/m 22,5 km/h (4 Bft) 100,00 %
17.03.2019 02:38 10,7 C 10,0 C 9,4 C 79 % 997,2 hPa 0,0 l/m 0 min 0 min 0 W/m 22,5 km/h (4 Bft) 100,00 %
17.03.2019 02:40 10,7 C 10,0 C 9,4 C 79 % 997,2 hPa 0,0 l/m 0 min 0 min 0 W/m 19,3 km/h (3 Bft) 100,00 %
17.03.2019 02:42 10,7 C 10,0 C 9,4 C 79 % 997,2 hPa 0,0 l/m 0 min 0 min 0 W/m 22,5 km/h (4 Bft) 100,00 %
17.03.2019 02:44 10,6 C 10,0 C 9,4 C 79 % 997,3 hPa 0,0 l/m 0 min 0 min 0 W/m 29,0 km/h (5 Bft) 100,00 %
17.03.2019 02:46 10,6 C 10,0 C 9,4 C 79 % 997,2 hPa 0,0 l/m 0 min 0 min 0 W/m 22,5 km/h (4 Bft) 97,87 %
17.03.2019 02:48 10,6 C 10,0 C 9,4 C 79 % 997,2 hPa 0,0 l/m 0 min 0 min 0 W/m 38,6 km/h (5 Bft) 97,87 %
17.03.2019 02:50 10,6 C 10,0 C 9,4 C 79 % 997,3 hPa 0,0 l/m 0 min 0 min 0 W/m 25,7 km/h (4 Bft) 97,83 %
17.03.2019 02:52 10,6 C 10,0 C 9,4 C 79 % 997,1 hPa 0,0 l/m 0 min 0 min 0 W/m 25,7 km/h (4 Bft) 97,87 %
17.03.2019 02:54 10,6 C 10,0 C 9,4 C 79 % 997,2 hPa 0,0 l/m 0 min 0 min 0 W/m 22,5 km/h (4 Bft) 95,74 %
17.03.2019 02:56 10,6 C 10,0 C 9,4 C 79 % 997,1 hPa 0,0 l/m 0 min 0 min 0 W/m 25,7 km/h (4 Bft) 97,87 %
17.03.2019 02:58 10,6 C 10,0 C 9,4 C 79 % 997,2 hPa 0,0 l/m 0 min 0 min 0 W/m 22,5 km/h (4 Bft) 97,87 %
17.03.2019 03:00 10,6 C 10,0 C 9,4 C 79 % 997,2 hPa 0,0 l/m 0 min 0 min 0 W/m 22,5 km/h (4 Bft) 97,87 %
17.03.2019 03:02 10,6 C 10,0 C 9,4 C 80 % 997,1 hPa 0,0 l/m 0 min 0 min 0 W/m 32,2 km/h (5 Bft) 95,65 %
17.03.2019 03:04 10,6 C 10,0 C 9,4 C 80 % 997,1 hPa 0,0 l/m 0 min 0 min 0 W/m 22,5 km/h (4 Bft) 97,87 %
17.03.2019 03:06 10,6 C 10,0 C 9,4 C 80 % 997,1 hPa 0,0 l/m 0 min 0 min 0 W/m 22,5 km/h (4 Bft) 97,87 %
17.03.2019 03:08 10,6 C 10,0 C 9,4 C 80 % 997,3 hPa 0,0 l/m 0 min 0 min 0 W/m 22,5 km/h (4 Bft) 95,74 %
17.03.2019 03:10 10,6 C 10,0 C 9,4 C 80 % 997,1 hPa 0,0 l/m 0 min 0 min 0 W/m 22,5 km/h (4 Bft) 97,87 %
17.03.2019 03:12 10,6 C 10,0 C 9,4 C 80 % 997,0 hPa 0,0 l/m 0 min 0 min 0 W/m 38,6 km/h (5 Bft) 97,87 %
17.03.2019 03:14 10,6 C 10,0 C 9,4 C 80 % 996,9 hPa 0,0 l/m 0 min 0 min 0 W/m 25,7 km/h (4 Bft) 97,83 %
17.03.2019 03:16 10,6 C 10,0 C 9,4 C 80 % 996,9 hPa 0,0 l/m 0 min 0 min 0 W/m 32,2 km/h (5 Bft) 97,87 %
17.03.2019 03:18 10,6 C 10,0 C 9,4 C 80 % 996,8 hPa 0,0 l/m 0 min 0 min 0 W/m 22,5 km/h (4 Bft) 95,74 %
17.03.2019 03:20 10,6 C 10,0 C 9,4 C 80 % 996,6 hPa 0,0 l/m 0 min 0 min 0 W/m 45,1 km/h (6 Bft) 93,62 %
17.03.2019 03:22 10,6 C 10,0 C 9,4 C 80 % 996,7 hPa 0,0 l/m 0 min 0 min 0 W/m 22,5 km/h (4 Bft) 95,74 %
17.03.2019 03:24 10,6 C 10,0 C 9,4 C 80 % 996,6 hPa 0,0 l/m 0 min 0 min 0 W/m 48,3 km/h (6 Bft) 93,62 %
17.03.2019 03:26 10,6 C 10,0 C 9,4 C 80 % 996,4 hPa 0,0 l/m 0 min 0 min 0 W/m 25,7 km/h (4 Bft) 95,65 %
17.03.2019 03:28 10,6 C 10,0 C 9,4 C 80 % 996,6 hPa 0,0 l/m 0 min 0 min 0 W/m 25,7 km/h (4 Bft) 95,74 %
17.03.2019 03:30 10,6 C 10,0 C 9,4 C 80 % 996,5 hPa 0,0 l/m 0 min 0 min 0 W/m 16,1 km/h (3 Bft) 95,74 %
17.03.2019 03:32 10,6 C 10,0 C 9,4 C 80 % 996,3 hPa 0,0 l/m 0 min 0 min 0 W/m 38,6 km/h (5 Bft) 93,62 %
17.03.2019 03:34 10,6 C 10,0 C 9,4 C 79 % 996,4 hPa 0,0 l/m 0 min 0 min 0 W/m 29,0 km/h (5 Bft) 93,62 %
17.03.2019 03:36 10,6 C 10,0 C 9,4 C 79 % 996,4 hPa 0,0 l/m 0 min 0 min 0 W/m 19,3 km/h (3 Bft) 91,38 %
17.03.2019 03:38 10,6 C 10,0 C 9,4 C 79 % 996,6 hPa 0,0 l/m 0 min 0 min 0 W/m 35,4 km/h (5 Bft) 97,14 %
17.03.2019 03:40 10,6 C 10,0 C 9,4 C 79 % 996,5 hPa 0,0 l/m 0 min 0 min 0 W/m 35,4 km/h (5 Bft) 93,62 %
17.03.2019 03:42 10,6 C 10,0 C 9,4 C 79 % 996,4 hPa 0,0 l/m 0 min 0 min 0 W/m 51,5 km/h (7 Bft) 93,62 %
17.03.2019 03:44 10,6 C 10,0 C 9,4 C 79 % 996,4 hPa 0,0 l/m 0 min 0 min 0 W/m 22,5 km/h (4 Bft) 95,74 %
17.03.2019 03:46 10,5 C 10,0 C 9,4 C 78 % 996,4 hPa 0,0 l/m 0 min 0 min 0 W/m 29,0 km/h (5 Bft) 97,87 %
17.03.2019 03:48 10,6 C 10,0 C 9,4 C 78 % 996,3 hPa 0,0 l/m 0 min 0 min 0 W/m 22,5 km/h (4 Bft) 93,48 %
17.03.2019 03:50 10,5 C 10,0 C 9,4 C 78 % 996,3 hPa 0,0 l/m 0 min 0 min 0 W/m 29,0 km/h (5 Bft) 95,74 %
17.03.2019 03:52 10,5 C 10,0 C 9,4 C 78 % 996,2 hPa 0,0 l/m 0 min 0 min 0 W/m 25,7 km/h (4 Bft) 95,74 %
17.03.2019 03:54 10,5 C 10,0 C 9,4 C 77 % 996,4 hPa 0,0 l/m 0 min 0 min 0 W/m 35,4 km/h (5 Bft) 93,62 %
17.03.2019 03:56 10,5 C 10,0 C 9,4 C 76 % 996,2 hPa 0,0 l/m 0 min 0 min 0 W/m 29,0 km/h (5 Bft) 95,74 %
17.03.2019 03:58 10,5 C 10,0 C 9,4 C 76 % 996,2 hPa 0,0 l/m 0 min 0 min 0 W/m 25,7 km/h (4 Bft) 93,62 %
17.03.2019 04:00 10,5 C 10,0 C 9,4 C 76 % 996,1 hPa 0,0 l/m 0 min 0 min 0 W/m 35,4 km/h (5 Bft) 95,65 %
17.03.2019 04:02 10,5 C 10,0 C 9,4 C 76 % 996,2 hPa 0,0 l/m 0 min 0 min 0 W/m 25,7 km/h (4 Bft) 100,00 %
17.03.2019 04:04 10,5 C 10,0 C 9,4 C 76 % 996,1 hPa 0,0 l/m 0 min 0 min 0 W/m 25,7 km/h (4 Bft) 97,87 %
17.03.2019 04:06 10,4 C 10,0 C 9,4 C 75 % 996,1 hPa 0,0 l/m 0 min 0 min 0 W/m 32,2 km/h (5 Bft) 100,00 %
17.03.2019 04:08 10,5 C 10,0 C 9,4 C 75 % 996,1 hPa 0,0 l/m 0 min 0 min 0 W/m 29,0 km/h (5 Bft) 93,62 %
17.03.2019 04:10 10,5 C 10,0 C 9,4 C 75 % 996,0 hPa 0,0 l/m 0 min 0 min 0 W/m 22,5 km/h (4 Bft) 95,74 %
17.03.2019 04:12 10,4 C 10,0 C 9,4 C 75 % 996,1 hPa 0,0 l/m 0 min 0 min 0 W/m 29,0 km/h (5 Bft) 97,83 %
17.03.2019 04:14 10,4 C 10,0 C 9,4 C 75 % 996,0 hPa 0,0 l/m 0 min 0 min 0 W/m 22,5 km/h (4 Bft) 97,87 %
17.03.2019 04:16 10,4 C 10,0 C 9,4 C 76 % 996,1 hPa 0,0 l/m 0 min 0 min 0 W/m 12,9 km/h (3 Bft) 97,87 %
17.03.2019 04:18 10,4 C 10,0 C 9,4 C 76 % 996,1 hPa 0,0 l/m 0 min 0 min 0 W/m 12,9 km/h (3 Bft) 97,87 %
17.03.2019 04:20 10,4 C 9,4 C 8,9 C 76 % 996,1 hPa 0,0 l/m 0 min 0 min 0 W/m 22,5 km/h (4 Bft) 97,87 %
17.03.2019 04:22 10,4 C 9,4 C 8,9 C 76 % 996,1 hPa 0,0 l/m 0 min 0 min 0 W/m 29,0 km/h (5 Bft) 97,87 %
17.03.2019 04:24 10,4 C 9,4 C 8,9 C 76 % 996,0 hPa 0,0 l/m 0 min 0 min 0 W/m 25,7 km/h (4 Bft) 93,48 %
17.03.2019 04:26 10,4 C 9,4 C 8,9 C 76 % 996,1 hPa 0,0 l/m 0 min 0 min 0 W/m 16,1 km/h (3 Bft) 97,87 %
17.03.2019 04:28 10,4 C 9,4 C 8,9 C 76 % 996,1 hPa 0,0 l/m 0 min 2 min 0 W/m 25,7 km/h (4 Bft) 97,87 %
17.03.2019 04:30 10,4 C 9,4 C 8,9 C 77 % 996,1 hPa 0,0 l/m 0 min 2 min 0 W/m 35,4 km/h (5 Bft) 97,87 %
17.03.2019 04:32 10,4 C 8,9 C 8,9 C 77 % 996,1 hPa 0,0 l/m 0 min 2 min 0 W/m 16,1 km/h (3 Bft) 97,87 %
17.03.2019 04:34 10,4 C 8,9 C 8,3 C 78 % 996,1 hPa 0,0 l/m 0 min 2 min 0 W/m 25,7 km/h (4 Bft) 95,74 %
17.03.2019 04:36 10,3 C 8,9 C 8,3 C 78 % 996,1 hPa 0,0 l/m 0 min 0 min 0 W/m 25,7 km/h (4 Bft) 95,65 %
17.03.2019 04:38 10,3 C 8,9 C 8,3 C 79 % 996,0 hPa 0,0 l/m 0 min 2 min 0 W/m 22,5 km/h (4 Bft) 100,00 %
17.03.2019 04:40 10,3 C 8,9 C 8,3 C 79 % 996,0 hPa 0,0 l/m 0 min 2 min 0 W/m 12,9 km/h (3 Bft) 100,00 %
17.03.2019 04:42 10,3 C 8,9 C 8,3 C 80 % 996,0 hPa 0,0 l/m 0 min 2 min 0 W/m 22,5 km/h (4 Bft) 100,00 %
17.03.2019 04:44 10,2 C 8,3 C 7,8 C 80 % 996,1 hPa 0,0 l/m 0 min 2 min 0 W/m 29,0 km/h (5 Bft) 100,00 %
17.03.2019 04:46 10,2 C 8,3 C 7,8 C 81 % 996,3 hPa 0,0 l/m 0 min 2 min 0 W/m 32,2 km/h (5 Bft) 100,00 %
17.03.2019 04:48 10,2 C 8,3 C 7,8 C 81 % 996,1 hPa 0,0 l/m 0 min 2 min 0 W/m 35,4 km/h (5 Bft) 100,00 %
17.03.2019 04:50 10,1 C 8,3 C 7,8 C 81 % 996,0 hPa 0,0 l/m 0 min 2 min 0 W/m 32,2 km/h (5 Bft) 100,00 %
17.03.2019 04:52 10,1 C 8,3 C 7,8 C 82 % 996,0 hPa 0,0 l/m 0 min 2 min 0 W/m 25,7 km/h (4 Bft) 100,00 %
17.03.2019 04:54 10,0 C 8,3 C 7,8 C 82 % 995,9 hPa 0,0 l/m 0 min 2 min 0 W/m 29,0 km/h (5 Bft) 100,00 %
17.03.2019 04:56 9,9 C 8,9 C 7,8 C 82 % 996,1 hPa 0,0 l/m 0 min 2 min 0 W/m 32,2 km/h (5 Bft) 100,00 %
17.03.2019 04:58 9,9 C 8,9 C 8,3 C 83 % 995,9 hPa 0,0 l/m 0 min 2 min 0 W/m 19,3 km/h (3 Bft) 100,00 %
17.03.2019 05:00 9,9 C 8,9 C 8,3 C 83 % 996,1 hPa 0,0 l/m 0 min 2 min 0 W/m 32,2 km/h (5 Bft) 100,00 %
17.03.2019 05:02 9,8 C 8,9 C 8,3 C 83 % 995,9 hPa 0,0 l/m 0 min 2 min 0 W/m 29,0 km/h (5 Bft) 97,87 %
17.03.2019 05:04 9,8 C 8,9 C 8,3 C 83 % 995,9 hPa 0,0 l/m 0 min 2 min 0 W/m 25,7 km/h (4 Bft) 100,00 %
17.03.2019 05:05 9,8 C 8,9 C 8,3 C 83 % 995,8 hPa 0,0 l/m 0 min 0 min 0 W/m 29,0 km/h (5 Bft) 100,00 %
17.03.2019 05:10 9,8 C 8,9 C 8,3 C 83 % 996,0 hPa 0,0 l/m 0 min 0 min 0 W/m 25,7 km/h (4 Bft) 100,00 %
17.03.2019 05:12 9,7 C 8,9 C 8,3 C 83 % 996,0 hPa 0,0 l/m 0 min 0 min 0 W/m 22,5 km/h (4 Bft) 100,00 %
17.03.2019 05:14 9,7 C 9,4 C 8,3 C 82 % 996,2 hPa 0,0 l/m 0 min 2 min 0 W/m 48,3 km/h (6 Bft) 97,87 %
17.03.2019 05:16 9,7 C 8,9 C 8,3 C 82 % 995,9 hPa 0,0 l/m 0 min 0 min 0 W/m 35,4 km/h (5 Bft) 100,00 %
17.03.2019 05:18 9,7 C 8,9 C 8,3 C 82 % 995,8 hPa 0,0 l/m 0 min 0 min 0 W/m 35,4 km/h (5 Bft) 100,00 %
17.03.2019 05:20 9,7 C 8,9 C 8,3 C 81 % 995,6 hPa 0,0 l/m 0 min 0 min 0 W/m 25,7 km/h (4 Bft) 100,00 %
17.03.2019 05:22 9,7 C 8,9 C 8,3 C 81 % 995,8 hPa 0,0 l/m 0 min 0 min 0 W/m 29,0 km/h (5 Bft) 100,00 %
17.03.2019 05:24 9,7 C 8,9 C 8,3 C 81 % 995,9 hPa 0,0 l/m 0 min 0 min 0 W/m 32,2 km/h (5 Bft) 100,00 %
17.03.2019 05:26 9,7 C 8,9 C 8,3 C 81 % 995,7 hPa 0,0 l/m 0 min 2 min 0 W/m 22,5 km/h (4 Bft) 100,00 %
17.03.2019 05:28 9,7 C 8,9 C 8,3 C 81 % 995,9 hPa 0,0 l/m 0 min 2 min 0 W/m 32,2 km/h (5 Bft) 100,00 %
17.03.2019 05:30 9,7 C 8,9 C 8,3 C 81 % 995,9 hPa 0,0 l/m 0 min 2 min 0 W/m 54,7 km/h (7 Bft) 97,87 %
17.03.2019 05:32 9,7 C 8,9 C 7,8 C 81 % 995,8 hPa 0,0 l/m 0 min 2 min 0 W/m 29,0 km/h (5 Bft) 100,00 %
17.03.2019 05:34 9,6 C 8,3 C 7,8 C 81 % 995,8 hPa 0,0 l/m 0 min 2 min 0 W/m 35,4 km/h (5 Bft) 97,83 %
17.03.2019 05:36 9,6 C 7,8 C 7,8 C 81 % 995,9 hPa 0,0 l/m 0 min 2 min 0 W/m 35,4 km/h (5 Bft) 100,00 %
17.03.2019 05:38 9,6 C 7,8 C 7,2 C 82 % 996,0 hPa 0,0 l/m 0 min 2 min 0 W/m 29,0 km/h (5 Bft) 100,00 %
17.03.2019 05:40 9,6 C 7,8 C 7,2 C 82 % 995,8 hPa 0,0 l/m 0 min 2 min 0 W/m 45,1 km/h (6 Bft) 100,00 %
17.03.2019 05:42 9,6 C 7,8 C 7,2 C 83 % 995,8 hPa 0,0 l/m 0 min 2 min 0 W/m 35,4 km/h (5 Bft) 100,00 %
17.03.2019 05:44 9,5 C 7,2 C 6,7 C 83 % 995,8 hPa 0,0 l/m 0 min 2 min 0 W/m 35,4 km/h (5 Bft) 100,00 %
17.03.2019 05:46 9,4 C 7,2 C 6,7 C 84 % 995,9 hPa 0,0 l/m 0 min 2 min 0 W/m 29,0 km/h (5 Bft) 100,00 %
17.03.2019 05:48 9,4 C 7,2 C 6,7 C 84 % 995,9 hPa 0,0 l/m 0 min 2 min 0 W/m 25,7 km/h (4 Bft) 100,00 %
17.03.2019 05:50 9,4 C 7,2 C 6,7 C 84 % 995,9 hPa 0,0 l/m 0 min 2 min 0 W/m 25,7 km/h (4 Bft) 100,00 %
17.03.2019 05:52 9,3 C 7,2 C 6,7 C 85 % 996,0 hPa 0,0 l/m 0 min 2 min 0 W/m 25,7 km/h (4 Bft) 97,87 %
17.03.2019 05:54 9,3 C 7,2 C 6,7 C 85 % 996,0 hPa 0,0 l/m 0 min 2 min 0 W/m 19,3 km/h (3 Bft) 97,87 %
17.03.2019 05:56 9,2 C 6,7 C 6,7 C 85 % 995,9 hPa 0,2 l/m 0 min 2 min 0 W/m 22,5 km/h (4 Bft) 100,00 %
17.03.2019 05:58 9,2 C 6,7 C 6,7 C 86 % 996,0 hPa 0,0 l/m 0 min 2 min 0 W/m 32,2 km/h (5 Bft) 100,00 %
17.03.2019 06:00 9,1 C 6,7 C 6,7 C 86 % 996,0 hPa 0,0 l/m 0 min 2 min 0 W/m 19,3 km/h (3 Bft) 100,00 %
17.03.2019 06:02 9,0 C 6,7 C 6,7 C 87 % 996,0 hPa 0,0 l/m 0 min 2 min 0 W/m 25,7 km/h (4 Bft) 97,87 %
17.03.2019 06:04 9,0 C 6,7 C 6,7 C 87 % 996,0 hPa 0,0 l/m 0 min 2 min 0 W/m 29,0 km/h (5 Bft) 97,87 %
17.03.2019 06:07 8,9 C 6,7 C 6,7 C 88 % 995,9 hPa 0,2 l/m 0 min 3 min 0 W/m 32,2 km/h (5 Bft) 97,18 %
17.03.2019 06:08 8,9 C 6,7 C 6,1 C 88 % 995,9 hPa 0,0 l/m 0 min 1 min 0 W/m 25,7 km/h (4 Bft) 95,65 %
17.03.2019 06:10 8,8 C 6,7 C 6,7 C 88 % 995,7 hPa 0,0 l/m 0 min 2 min 0 W/m 22,5 km/h (4 Bft) 97,22 %
17.03.2019 06:12 8,8 C 6,7 C 6,7 C 88 % 995,8 hPa 0,0 l/m 0 min 2 min 0 W/m 35,4 km/h (5 Bft) 93,75 %
17.03.2019 06:14 8,7 C 6,7 C 6,7 C 88 % 995,7 hPa 0,0 l/m 0 min 2 min 0 W/m 32,2 km/h (5 Bft) 95,74 %
17.03.2019 06:16 8,7 C 6,7 C 6,1 C 89 % 995,8 hPa 0,0 l/m 0 min 2 min 0 W/m 25,7 km/h (4 Bft) 97,87 %
17.03.2019 06:18 8,7 C 6,7 C 6,1 C 89 % 995,7 hPa 0,0 l/m 0 min 2 min 0 W/m 25,7 km/h (4 Bft) 97,87 %
17.03.2019 06:20 8,7 C 6,7 C 6,1 C 89 % 995,6 hPa 0,0 l/m 0 min 2 min 0 W/m 29,0 km/h (5 Bft) 93,62 %
17.03.2019 06:22 8,6 C 6,7 C 6,1 C 89 % 995,8 hPa 0,2 l/m 0 min 2 min 0 W/m 41,8 km/h (6 Bft) 95,65 %
17.03.2019 06:24 8,6 C 6,7 C 6,1 C 89 % 995,7 hPa 0,0 l/m 0 min 2 min 0 W/m 29,0 km/h (5 Bft) 95,74 %
17.03.2019 06:26 8,6 C 6,7 C 6,1 C 89 % 995,8 hPa 0,0 l/m 0 min 2 min 0 W/m 32,2 km/h (5 Bft) 93,62 %
17.03.2019 06:28 8,6 C 6,7 C 6,1 C 89 % 995,8 hPa 0,0 l/m 0 min 2 min 0 W/m 22,5 km/h (4 Bft) 93,62 %
17.03.2019 06:30 8,5 C 6,7 C 6,1 C 89 % 995,9 hPa 0,0 l/m 0 min 2 min 0 W/m 29,0 km/h (5 Bft) 93,62 %
17.03.2019 06:32 8,5 C 6,7 C 6,1 C 90 % 995,8 hPa 0,0 l/m 0 min 2 min 0 W/m 32,2 km/h (5 Bft) 93,62 %
17.03.2019 06:34 8,5 C 6,7 C 6,1 C 90 % 995,8 hPa 0,0 l/m 0 min 2 min 0 W/m 38,6 km/h (5 Bft) 95,65 %
17.03.2019 06:36 8,5 C 6,7 C 6,1 C 90 % 996,0 hPa 0,2 l/m 0 min 2 min 0 W/m 22,5 km/h (4 Bft) 93,22 %
17.03.2019 06:38 8,5 C 6,7 C 6,1 C 90 % 996,0 hPa 0,0 l/m 0 min 2 min 0 W/m 19,3 km/h (3 Bft) 94,29 %
17.03.2019 06:40 8,4 C 6,7 C 6,1 C 90 % 996,0 hPa 0,0 l/m 0 min 2 min 0 W/m 32,2 km/h (5 Bft) 93,62 %
17.03.2019 06:42 8,4 C 6,7 C 6,1 C 90 % 995,9 hPa 0,0 l/m 0 min 2 min 0 W/m 29,0 km/h (5 Bft) 93,62 %
17.03.2019 06:44 8,4 C 6,7 C 6,1 C 90 % 996,0 hPa 0,0 l/m 0 min 2 min 0 W/m 32,2 km/h (5 Bft) 93,62 %
17.03.2019 06:46 8,4 C 6,7 C 6,1 C 90 % 995,9 hPa 0,0 l/m 0 min 2 min 0 W/m 35,4 km/h (5 Bft) 93,48 %
17.03.2019 06:48 8,4 C 6,7 C 6,1 C 90 % 995,9 hPa 0,0 l/m 0 min 2 min 0 W/m 29,0 km/h (5 Bft) 95,74 %
17.03.2019 06:50 8,4 C 6,7 C 6,1 C 90 % 995,9 hPa 0,0 l/m 0 min 2 min 0 W/m 32,2 km/h (5 Bft) 95,74 %
17.03.2019 06:52 8,4 C 6,7 C 6,1 C 90 % 996,0 hPa 0,0 l/m 0 min 2 min 0 W/m 32,2 km/h (5 Bft) 91,49 %
17.03.2019 06:54 8,4 C 6,7 C 6,1 C 90 % 996,2 hPa 0,2 l/m 0 min 2 min 0 W/m 25,7 km/h (4 Bft) 95,74 %
17.03.2019 06:56 8,3 C 6,7 C 6,1 C 91 % 996,1 hPa 0,0 l/m 0 min 2 min 0 W/m 35,4 km/h (5 Bft) 95,74 %
17.03.2019 06:58 8,3 C 6,7 C 6,1 C 91 % 996,0 hPa 0,0 l/m 0 min 2 min 0 W/m 35,4 km/h (5 Bft) 93,48 %
17.03.2019 07:00 8,3 C 6,7 C 6,1 C 91 % 996,0 hPa 0,2 l/m 0 min 2 min 0 W/m 19,3 km/h (3 Bft) 95,74 %
17.03.2019 07:02 8,3 C 6,7 C 6,1 C 91 % 996,0 hPa 0,0 l/m 0 min 2 min 0 W/m 29,0 km/h (5 Bft) 91,49 %
17.03.2019 07:04 8,3 C 6,7 C 6,1 C 91 % 996,1 hPa 0,0 l/m 0 min 2 min 0 W/m 16,1 km/h (3 Bft) 95,74 %
17.03.2019 07:06 8,3 C 6,7 C 6,1 C 91 % 996,2 hPa 0,0 l/m 0 min 2 min 1 W/m 22,5 km/h (4 Bft) 91,38 %
17.03.2019 07:08 8,2 C 6,7 C 6,1 C 91 % 996,2 hPa 0,0 l/m 0 min 2 min 5 W/m 22,5 km/h (4 Bft) 94,59 %
17.03.2019 07:10 8,2 C 6,7 C 6,1 C 91 % 996,0 hPa 0,0 l/m 0 min 2 min 7 W/m 25,7 km/h (4 Bft) 95,65 %
17.03.2019 07:12 8,2 C 6,7 C 6,1 C 92 % 996,1 hPa 0,0 l/m 0 min 2 min 6 W/m 22,5 km/h (4 Bft) 95,74 %
17.03.2019 07:14 8,2 C 6,7 C 6,1 C 92 % 996,2 hPa 0,0 l/m 0 min 2 min 5 W/m 25,7 km/h (4 Bft) 95,74 %
17.03.2019 07:16 8,2 C 6,7 C 6,1 C 92 % 996,2 hPa 0,0 l/m 0 min 2 min 7 W/m 29,0 km/h (5 Bft) 95,74 %
17.03.2019 07:18 8,2 C 6,7 C 6,1 C 92 % 996,2 hPa 0,2 l/m 0 min 2 min 6 W/m 32,2 km/h (5 Bft) 95,74 %
17.03.2019 07:20 8,2 C 6,7 C 6,1 C 92 % 996,1 hPa 0,0 l/m 0 min 2 min 5 W/m 45,1 km/h (6 Bft) 97,83 %
17.03.2019 07:22 8,1 C 6,7 C 6,1 C 92 % 996,3 hPa 0,0 l/m 0 min 2 min 5 W/m 64,4 km/h (8 Bft) 93,62 %
17.03.2019 07:24 8,1 C 6,7 C 6,1 C 92 % 996,3 hPa 0,0 l/m 0 min 2 min 6 W/m 35,4 km/h (5 Bft) 95,74 %
17.03.2019 07:26 8,1 C 6,7 C 6,1 C 92 % 996,2 hPa 0,0 l/m 0 min 2 min 7 W/m 22,5 km/h (4 Bft) 100,00 %
17.03.2019 07:28 8,1 C 6,7 C 6,1 C 92 % 996,2 hPa 0,0 l/m 0 min 2 min 10 W/m 22,5 km/h (4 Bft) 100,00 %
17.03.2019 07:30 8,1 C 6,7 C 6,1 C 92 % 996,4 hPa 0,0 l/m 0 min 2 min 13 W/m 25,7 km/h (4 Bft) 100,00 %
17.03.2019 07:32 8,1 C 6,7 C 6,1 C 92 % 996,2 hPa 0,0 l/m 0 min 2 min 12 W/m 25,7 km/h (4 Bft) 97,83 %
17.03.2019 07:34 8,1 C 6,7 C 6,1 C 92 % 996,3 hPa 0,0 l/m 0 min 2 min 14 W/m 29,0 km/h (5 Bft) 97,87 %
17.03.2019 07:36 8,1 C 6,7 C 6,1 C 93 % 996,4 hPa 0,0 l/m 0 min 2 min 16 W/m 29,0 km/h (5 Bft) 98,31 %
17.03.2019 07:38 8,1 C 6,7 C 6,1 C 93 % 996,4 hPa 0,0 l/m 0 min 2 min 15 W/m 22,5 km/h (4 Bft) 100,00 %
17.03.2019 07:44 8,1 C 6,7 C 6,1 C 93 % 996,5 hPa 0,2 l/m 0 min 5 min 16 W/m 25,7 km/h (4 Bft) 100,00 %
17.03.2019 07:46 8,1 C 6,7 C 6,1 C 93 % 996,5 hPa 0,0 l/m 0 min 2 min 16 W/m 22,5 km/h (4 Bft) 100,00 %
17.03.2019 07:48 8,1 C 6,7 C 6,1 C 93 % 996,7 hPa 0,0 l/m 0 min 2 min 14 W/m 29,0 km/h (5 Bft) 100,00 %
17.03.2019 07:50 8,1 C 6,7 C 6,1 C 93 % 996,5 hPa 0,0 l/m 0 min 2 min 12 W/m 29,0 km/h (5 Bft) 100,00 %
17.03.2019 07:52 8,1 C 6,7 C 6,1 C 93 % 996,7 hPa 0,2 l/m 0 min 2 min 13 W/m 32,2 km/h (5 Bft) 100,00 %
17.03.2019 07:54 8,1 C 6,7 C 6,1 C 93 % 996,6 hPa 0,0 l/m 0 min 2 min 19 W/m 25,7 km/h (4 Bft) 100,00 %
17.03.2019 07:56 8,1 C 6,7 C 6,1 C 93 % 997,0 hPa 0,0 l/m 0 min 2 min 29 W/m 29,0 km/h (5 Bft) 95,74 %
17.03.2019 07:58 8,1 C 6,7 C 6,1 C 93 % 996,8 hPa 0,0 l/m 0 min 2 min 41 W/m 25,7 km/h (4 Bft) 100,00 %
17.03.2019 08:00 8,1 C 6,7 C 6,1 C 93 % 997,0 hPa 0,0 l/m 0 min 2 min 43 W/m 29,0 km/h (5 Bft) 100,00 %
17.03.2019 08:02 8,1 C 6,7 C 6,1 C 93 % 997,0 hPa 0,0 l/m 0 min 2 min 43 W/m 19,3 km/h (3 Bft) 100,00 %
17.03.2019 08:04 8,1 C 6,7 C 6,1 C 93 % 996,9 hPa 0,0 l/m 0 min 2 min 50 W/m 35,4 km/h (5 Bft) 100,00 %
17.03.2019 08:06 8,1 C 6,7 C 6,7 C 93 % 997,1 hPa 0,0 l/m 0 min 2 min 53 W/m 22,5 km/h (4 Bft) 100,00 %
17.03.2019 08:08 8,1 C 6,7 C 6,7 C 93 % 997,1 hPa 0,0 l/m 0 min 2 min 52 W/m 22,5 km/h (4 Bft) 100,00 %
17.03.2019 08:10 8,0 C 6,7 C 6,7 C 93 % 997,2 hPa 0,0 l/m 0 min 2 min 47 W/m 19,3 km/h (3 Bft) 100,00 %
17.03.2019 08:12 8,0 C 6,7 C 6,7 C 93 % 997,0 hPa 0,0 l/m 0 min 2 min 42 W/m 16,1 km/h (3 Bft) 97,87 %
17.03.2019 08:14 8,0 C 6,7 C 6,7 C 93 % 997,0 hPa 0,0 l/m 0 min 2 min 47 W/m 12,9 km/h (3 Bft) 100,00 %
17.03.2019 08:16 8,0 C 6,7 C 6,1 C 93 % 997,0 hPa 0,0 l/m 0 min 2 min 47 W/m 12,9 km/h (3 Bft) 100,00 %
17.03.2019 08:18 7,9 C 6,7 C 6,1 C 93 % 997,1 hPa 0,0 l/m 0 min 2 min 45 W/m 19,3 km/h (3 Bft) 100,00 %
17.03.2019 08:20 7,9 C 6,7 C 6,1 C 93 % 997,1 hPa 0,0 l/m 0 min 2 min 44 W/m 16,1 km/h (3 Bft) 100,00 %
17.03.2019 08:22 7,9 C 6,7 C 6,1 C 93 % 997,1 hPa 0,0 l/m 0 min 2 min 43 W/m 12,9 km/h (3 Bft) 100,00 %
17.03.2019 08:24 7,9 C 6,7 C 6,1 C 93 % 997,2 hPa 0,0 l/m 0 min 2 min 42 W/m 12,9 km/h (3 Bft) 93,62 %
17.03.2019 08:26 7,9 C 6,7 C 6,1 C 93 % 997,2 hPa 0,0 l/m 0 min 2 min 38 W/m 19,3 km/h (3 Bft) 100,00 %
17.03.2019 08:28 7,9 C 6,7 C 6,1 C 93 % 997,3 hPa 0,2 l/m 0 min 2 min 32 W/m 22,5 km/h (4 Bft) 100,00 %
17.03.2019 08:30 7,9 C 6,7 C 6,1 C 93 % 997,3 hPa 0,0 l/m 0 min 2 min 26 W/m 16,1 km/h (3 Bft) 100,00 %
17.03.2019 08:32 7,9 C 6,7 C 6,1 C 93 % 997,4 hPa 0,0 l/m 0 min 2 min 22 W/m 29,0 km/h (5 Bft) 100,00 %
17.03.2019 08:34 7,9 C 6,7 C 6,1 C 93 % 997,6 hPa 0,0 l/m 0 min 2 min 13 W/m 16,1 km/h (3 Bft) 100,00 %
17.03.2019 08:36 7,8 C 6,1 C 6,1 C 93 % 997,8 hPa 0,0 l/m 0 min 2 min 11 W/m 38,6 km/h (5 Bft) 100,00 %
17.03.2019 08:38 7,7 C 5,6 C 5,6 C 93 % 997,8 hPa 0,4 l/m 0 min 2 min 17 W/m 32,2 km/h (5 Bft) 100,00 %
17.03.2019 08:40 7,5 C 5,6 C 5,0 C 93 % 997,8 hPa 0,0 l/m 0 min 2 min 28 W/m 22,5 km/h (4 Bft) 100,00 %
17.03.2019 08:42 7,3 C 5,6 C 5,0 C 92 % 998,0 hPa 0,0 l/m 0 min 2 min 32 W/m 25,7 km/h (4 Bft) 97,87 %
17.03.2019 08:44 7,2 C 5,0 C 5,0 C 92 % 998,0 hPa 0,0 l/m 0 min 2 min 35 W/m 19,3 km/h (3 Bft) 95,74 %
17.03.2019 08:46 7,0 C 5,0 C 5,0 C 92 % 998,0 hPa 0,2 l/m 0 min 2 min 34 W/m 29,0 km/h (5 Bft) 97,87 %
17.03.2019 08:48 6,9 C 5,0 C 5,0 C 92 % 998,0 hPa 0,0 l/m 0 min 2 min 39 W/m 19,3 km/h (3 Bft) 95,65 %
17.03.2019 08:50 6,8 C 5,0 C 5,0 C 92 % 998,0 hPa 0,0 l/m 0 min 2 min 50 W/m 12,9 km/h (3 Bft) 97,62 %
17.03.2019 08:52 6,8 C 5,0 C 5,0 C 92 % 998,0 hPa 0,0 l/m 0 min 2 min 69 W/m 16,1 km/h (3 Bft) 97,87 %
17.03.2019 08:54 6,7 C 5,6 C 5,0 C 92 % 997,9 hPa 0,0 l/m 0 min 2 min 97 W/m 16,1 km/h (3 Bft) 98,00 %
17.03.2019 08:56 6,7 C 5,6 C 5,0 C 92 % 998,0 hPa 0,0 l/m 0 min 2 min 106 W/m 12,9 km/h (3 Bft) 97,96 %
17.03.2019 08:58 6,7 C 5,6 C 5,0 C 92 % 998,1 hPa 0,0 l/m 0 min 2 min 102 W/m 9,7 km/h (2 Bft) 97,87 %
17.03.2019 09:00 6,7 C 5,6 C 5,6 C 93 % 998,1 hPa 0,0 l/m 0 min 2 min 97 W/m 16,1 km/h (3 Bft) 97,83 %
17.03.2019 09:02 6,6 C 5,6 C 5,6 C 93 % 998,0 hPa 0,0 l/m 0 min 2 min 96 W/m 12,9 km/h (3 Bft) 95,74 %
17.03.2019 09:04 6,6 C 5,6 C 5,6 C 93 % 998,1 hPa 0,0 l/m 0 min 2 min 96 W/m 16,1 km/h (3 Bft) 97,87 %
17.03.2019 09:06 6,6 C 5,6 C 5,6 C 93 % 998,2 hPa 0,0 l/m 0 min 2 min 82 W/m 16,1 km/h (3 Bft) 97,87 %
17.03.2019 09:08 6,6 C 5,6 C 5,6 C 93 % 998,3 hPa 0,0 l/m 0 min 0 min 72 W/m 6,4 km/h (2 Bft) 97,87 %
17.03.2019 09:10 6,6 C 5,6 C 5,6 C 93 % 998,2 hPa 0,0 l/m 0 min 0 min 83 W/m 6,4 km/h (2 Bft) 97,87 %
17.03.2019 09:12 6,6 C 5,6 C 5,6 C 93 % 998,2 hPa 0,0 l/m 0 min 0 min 86 W/m 9,7 km/h (2 Bft) 95,65 %
17.03.2019 09:14 6,6 C 5,6 C 5,6 C 93 % 998,2 hPa 0,0 l/m 0 min 0 min 82 W/m 6,4 km/h (2 Bft) 95,74 %
17.03.2019 09:16 6,6 C 5,6 C 5,6 C 93 % 998,2 hPa 0,0 l/m 0 min 0 min 87 W/m 6,4 km/h (2 Bft) 95,74 %
17.03.2019 09:18 6,6 C 6,1 C 5,6 C 93 % 998,2 hPa 0,0 l/m 0 min 0 min 94 W/m 6,4 km/h (2 Bft) 95,74 %
17.03.2019 09:20 6,6 C 6,1 C 5,6 C 92 % 998,3 hPa 0,0 l/m 0 min 0 min 103 W/m 3,2 km/h (1 Bft) 93,62 %
17.03.2019 09:22 6,6 C 6,1 C 6,1 C 92 % 998,3 hPa 0,0 l/m 0 min 0 min 124 W/m 9,7 km/h (2 Bft) 93,62 %
17.03.2019 09:24 6,6 C 6,7 C 6,1 C 93 % 998,3 hPa 0,0 l/m 0 min 0 min 131 W/m 9,7 km/h (2 Bft) 95,65 %
17.03.2019 09:26 6,7 C 6,7 C 6,1 C 93 % 998,3 hPa 0,0 l/m 0 min 0 min 173 W/m 6,4 km/h (2 Bft) 100,00 %
17.03.2019 09:28 6,7 C 7,2 C 6,7 C 93 % 998,3 hPa 0,0 l/m 2 min 0 min 195 W/m 3,2 km/h (1 Bft) 100,00 %
17.03.2019 09:30 6,7 C 7,2 C 6,7 C 93 % 998,4 hPa 0,0 l/m 0 min 0 min 180 W/m 9,7 km/h (2 Bft) 97,87 %
17.03.2019 09:32 6,8 C 7,2 C 6,7 C 93 % 998,4 hPa 0,0 l/m 0 min 0 min 172 W/m 9,7 km/h (2 Bft) 95,24 %
17.03.2019 09:34 6,9 C 7,2 C 6,7 C 93 % 998,5 hPa 0,0 l/m 0 min 0 min 135 W/m 6,4 km/h (2 Bft) 95,92 %
17.03.2019 09:36 6,9 C 7,2 C 6,7 C 93 % 998,5 hPa 0,0 l/m 0 min 0 min 92 W/m 6,4 km/h (2 Bft) 95,74 %
17.03.2019 09:38 7,0 C 6,7 C 6,1 C 93 % 998,5 hPa 0,0 l/m 0 min 0 min 91 W/m 9,7 km/h (2 Bft) 97,87 %
17.03.2019 09:40 7,1 C 6,7 C 6,1 C 93 % 998,4 hPa 0,0 l/m 0 min 0 min 111 W/m 12,9 km/h (3 Bft) 97,87 %
17.03.2019 09:42 7,1 C 6,7 C 6,7 C 93 % 998,5 hPa 0,0 l/m 0 min 0 min 164 W/m 9,7 km/h (2 Bft) 97,87 %
17.03.2019 09:44 7,2 C 7,2 C 6,7 C 93 % 998,5 hPa 0,0 l/m 0 min 0 min 176 W/m 9,7 km/h (2 Bft) 93,62 %
17.03.2019 09:46 7,2 C 7,2 C 6,7 C 94 % 998,6 hPa 0,0 l/m 0 min 0 min 150 W/m 12,9 km/h (3 Bft) 95,83 %
17.03.2019 09:48 7,3 C 7,2 C 6,7 C 94 % 998,7 hPa 0,0 l/m 0 min 0 min 146 W/m 12,9 km/h (3 Bft) 95,74 %
17.03.2019 09:50 7,3 C 7,2 C 6,7 C 94 % 998,6 hPa 0,0 l/m 0 min 0 min 190 W/m 6,4 km/h (2 Bft) 95,74 %
17.03.2019 09:52 7,3 C 7,2 C 6,7 C 94 % 998,7 hPa 0,0 l/m 0 min 0 min 181 W/m 16,1 km/h (3 Bft) 93,62 %
17.03.2019 09:54 7,4 C 7,2 C 6,7 C 94 % 998,7 hPa 0,0 l/m 0 min 0 min 155 W/m 16,1 km/h (3 Bft) 95,74 %
17.03.2019 09:56 7,4 C 7,2 C 6,7 C 94 % 998,8 hPa 0,0 l/m 0 min 0 min 142 W/m 9,7 km/h (2 Bft) 95,74 %
17.03.2019 09:58 7,5 C 7,2 C 6,7 C 94 % 998,8 hPa 0,0 l/m 0 min 0 min 134 W/m 22,5 km/h (4 Bft) 95,65 %
17.03.2019 10:00 7,5 C 7,2 C 6,7 C 94 % 998,8 hPa 0,0 l/m 0 min 0 min 130 W/m 16,1 km/h (3 Bft) 95,24 %
17.03.2019 10:02 7,6 C 7,2 C 6,7 C 94 % 998,8 hPa 0,0 l/m 0 min 0 min 123 W/m 9,7 km/h (2 Bft) 93,62 %
17.03.2019 10:04 7,6 C 7,8 C 7,2 C 94 % 998,7 hPa 0,0 l/m 0 min 0 min 163 W/m 6,4 km/h (2 Bft) 95,74 %
17.03.2019 10:06 7,6 C 7,8 C 7,2 C 94 % 998,8 hPa 0,0 l/m 0 min 0 min 148 W/m 6,4 km/h (2 Bft) 93,10 %
17.03.2019 10:08 7,7 C 7,8 C 7,2 C 94 % 998,8 hPa 0,0 l/m 0 min 0 min 133 W/m 12,9 km/h (3 Bft) 94,44 %
17.03.2019 10:10 7,7 C 7,8 C 7,2 C 94 % 998,9 hPa 0,0 l/m 0 min 0 min 141 W/m 6,4 km/h (2 Bft) 96,00 %
17.03.2019 10:12 7,8 C 7,8 C 7,2 C 94 % 998,8 hPa 0,0 l/m 0 min 0 min 158 W/m 25,7 km/h (4 Bft) 95,83 %
17.03.2019 10:14 7,8 C 7,8 C 7,2 C 94 % 998,9 hPa 0,0 l/m 0 min 0 min 164 W/m 9,7 km/h (2 Bft) 95,74 %
17.03.2019 10:16 7,9 C 7,8 C 7,2 C 94 % 998,9 hPa 0,0 l/m 0 min 0 min 172 W/m 22,5 km/h (4 Bft) 95,74 %
17.03.2019 10:18 7,9 C 7,8 C 7,2 C 94 % 998,8 hPa 0,0 l/m 0 min 0 min 196 W/m 22,5 km/h (4 Bft) 95,74 %
17.03.2019 10:20 7,9 C 7,8 C 7,2 C 94 % 998,8 hPa 0,0 l/m 0 min 0 min 216 W/m 16,1 km/h (3 Bft) 94,29 %
17.03.2019 10:22 8,0 C 7,8 C 7,2 C 93 % 999,0 hPa 0,0 l/m 0 min 0 min 218 W/m 16,1 km/h (3 Bft) 96,30 %
17.03.2019 10:24 8,0 C 7,8 C 7,2 C 93 % 999,0 hPa 0,0 l/m 0 min 0 min 217 W/m 19,3 km/h (3 Bft) 95,74 %
17.03.2019 10:26 8,1 C 7,8 C 7,2 C 93 % 998,9 hPa 0,0 l/m 0 min 0 min 221 W/m 22,5 km/h (4 Bft) 97,87 %
17.03.2019 10:28 8,1 C 7,8 C 7,2 C 93 % 999,0 hPa 0,0 l/m 0 min 0 min 215 W/m 16,1 km/h (3 Bft) 97,87 %
17.03.2019 10:30 8,1 C 7,8 C 7,2 C 93 % 999,0 hPa 0,0 l/m 0 min 0 min 205 W/m 19,3 km/h (3 Bft) 98,00 %
17.03.2019 10:32 8,2 C 7,8 C 7,2 C 92 % 999,0 hPa 0,0 l/m 0 min 0 min 206 W/m 29,0 km/h (5 Bft) 97,83 %
17.03.2019 10:34 8,2 C 7,8 C 7,2 C 91 % 999,1 hPa 0,0 l/m 0 min 0 min 223 W/m 22,5 km/h (4 Bft) 100,00 %
17.03.2019 10:36 8,2 C 7,8 C 7,2 C 91 % 999,0 hPa 0,0 l/m 0 min 0 min 223 W/m 22,5 km/h (4 Bft) 97,87 %
17.03.2019 10:38 8,3 C 7,8 C 7,2 C 90 % 999,0 hPa 0,0 l/m 0 min 0 min 233 W/m 19,3 km/h (3 Bft) 100,00 %
17.03.2019 10:40 8,3 C 8,3 C 7,2 C 90 % 999,0 hPa 0,0 l/m 2 min 0 min 267 W/m 22,5 km/h (4 Bft) 100,00 %
17.03.2019 10:42 8,3 C 8,3 C 7,2 C 90 % 999,0 hPa 0,0 l/m 2 min 0 min 260 W/m 19,3 km/h (3 Bft) 100,00 %
17.03.2019 10:44 8,4 C 8,3 C 7,2 C 89 % 999,0 hPa 0,0 l/m 2 min 0 min 263 W/m 32,2 km/h (5 Bft) 100,00 %
17.03.2019 10:46 8,4 C 7,8 C 7,2 C 88 % 999,1 hPa 0,0 l/m 0 min 0 min 201 W/m 19,3 km/h (3 Bft) 97,87 %
17.03.2019 10:48 8,4 C 7,8 C 7,2 C 88 % 999,1 hPa 0,0 l/m 0 min 0 min 181 W/m 19,3 km/h (3 Bft) 100,00 %
17.03.2019 10:50 8,4 C 7,8 C 7,2 C 87 % 999,1 hPa 0,0 l/m 0 min 0 min 162 W/m 19,3 km/h (3 Bft) 100,00 %
17.03.2019 10:52 8,5 C 7,8 C 7,2 C 87 % 999,2 hPa 0,0 l/m 0 min 0 min 162 W/m 19,3 km/h (3 Bft) 100,00 %
17.03.2019 10:54 8,5 C 7,8 C 6,7 C 87 % 999,1 hPa 0,0 l/m 0 min 0 min 194 W/m 29,0 km/h (5 Bft) 100,00 %
17.03.2019 10:56 8,5 C 7,8 C 7,2 C 86 % 999,2 hPa 0,0 l/m 0 min 0 min 235 W/m 25,7 km/h (4 Bft) 100,00 %
17.03.2019 10:58 8,5 C 8,3 C 7,2 C 85 % 999,3 hPa 0,0 l/m 0 min 0 min 215 W/m 22,5 km/h (4 Bft) 93,62 %
17.03.2019 11:00 8,5 C 7,8 C 7,2 C 85 % 999,3 hPa 0,0 l/m 0 min 0 min 201 W/m 29,0 km/h (5 Bft) 100,00 %
17.03.2019 11:02 8,5 C 7,8 C 7,2 C 84 % 999,5 hPa 0,0 l/m 0 min 0 min 161 W/m 22,5 km/h (4 Bft) 97,96 %
17.03.2019 11:04 8,5 C 7,8 C 7,2 C 84 % 999,5 hPa 0,0 l/m 0 min 0 min 166 W/m 22,5 km/h (4 Bft) 100,00 %
17.03.2019 11:06 8,5 C 7,8 C 7,2 C 84 % 999,5 hPa 0,0 l/m 0 min 0 min 169 W/m 29,0 km/h (5 Bft) 100,00 %
17.03.2019 11:08 8,5 C 8,3 C 6,7 C 83 % 999,5 hPa 0,0 l/m 0 min 0 min 187 W/m 16,1 km/h (3 Bft) 97,62 %
17.03.2019 11:10 8,6 C 8,9 C 7,2 C 83 % 999,5 hPa 0,0 l/m 0 min 0 min 209 W/m 32,2 km/h (5 Bft) 97,87 %
17.03.2019 11:12 8,6 C 10,0 C 7,2 C 83 % 999,5 hPa 0,0 l/m 2 min 0 min 347 W/m 32,2 km/h (5 Bft) 98,00 %
17.03.2019 11:14 8,6 C 10,0 C 7,2 C 83 % 999,7 hPa 0,0 l/m 2 min 0 min 411 W/m 22,5 km/h (4 Bft) 95,74 %
17.03.2019 11:16 8,6 C 10,0 C 7,2 C 83 % 999,6 hPa 0,0 l/m 0 min 0 min 270 W/m 22,5 km/h (4 Bft) 97,92 %
17.03.2019 11:18 8,7 C 10,0 C 7,2 C 82 % 999,7 hPa 0,0 l/m 0 min 0 min 248 W/m 19,3 km/h (3 Bft) 97,87 %
17.03.2019 11:20 8,7 C 11,1 C 7,2 C 82 % 999,6 hPa 0,0 l/m 2 min 0 min 369 W/m 22,5 km/h (4 Bft) 97,83 %
17.03.2019 11:22 8,8 C 10,6 C 7,2 C 82 % 999,8 hPa 0,0 l/m 2 min 2 min 300 W/m 25,7 km/h (4 Bft) 95,74 %
17.03.2019 11:24 8,8 C 8,9 C 6,7 C 82 % 999,9 hPa 0,0 l/m 0 min 2 min 101 W/m 32,2 km/h (5 Bft) 97,87 %
17.03.2019 11:26 8,7 C 7,2 C 5,6 C 82 % 999,9 hPa 0,0 l/m 0 min 2 min 69 W/m 51,5 km/h (7 Bft) 97,87 %
17.03.2019 11:28 8,3 C 6,7 C 5,0 C 82 % 999,9 hPa 0,0 l/m 0 min 2 min 109 W/m 25,7 km/h (4 Bft) 97,87 %
17.03.2019 11:30 8,2 C 6,7 C 5,0 C 83 % 999,9 hPa 0,0 l/m 0 min 2 min 144 W/m 22,5 km/h (4 Bft) 95,74 %
17.03.2019 11:32 8,1 C 7,8 C 5,6 C 83 % 999,9 hPa 0,0 l/m 0 min 2 min 164 W/m 9,7 km/h (2 Bft) 97,83 %
17.03.2019 11:34 8,0 C 9,4 C 5,6 C 84 % 999,8 hPa 0,0 l/m 0 min 2 min 223 W/m 16,1 km/h (3 Bft) 93,62 %
17.03.2019 11:36 8,0 C 12,2 C 6,7 C 85 % 999,8 hPa 0,0 l/m 2 min 2 min 640 W/m 16,1 km/h (3 Bft) 97,87 %
17.03.2019 11:38 8,1 C 13,3 C 6,7 C 86 % 999,8 hPa 0,2 l/m 2 min 2 min 650 W/m 25,7 km/h (4 Bft) 95,74 %
17.03.2019 11:40 8,2 C 13,9 C 7,2 C 87 % 999,8 hPa 0,0 l/m 2 min 2 min 652 W/m 19,3 km/h (3 Bft) 97,87 %
17.03.2019 11:42 8,2 C 11,7 C 6,7 C 87 % 999,9 hPa 0,0 l/m 2 min 2 min 511 W/m 16,1 km/h (3 Bft) 95,74 %
17.03.2019 11:44 8,3 C 11,1 C 6,7 C 87 % 1000,0 hPa 0,0 l/m 0 min 2 min 200 W/m 16,1 km/h (3 Bft) 95,65 %
17.03.2019 11:46 8,4 C 13,9 C 7,2 C 87 % 999,9 hPa 0,0 l/m 0 min 0 min 275 W/m 16,1 km/h (3 Bft) 97,14 %
17.03.2019 11:48 8,6 C 16,7 C 7,8 C 88 % 1000,0 hPa 0,0 l/m 2 min 0 min 686 W/m 12,9 km/h (3 Bft) 98,15 %
17.03.2019 11:50 8,8 C 14,4 C 7,8 C 88 % 999,9 hPa 0,0 l/m 2 min 0 min 672 W/m 12,9 km/h (3 Bft) 96,00 %
17.03.2019 11:52 8,8 C 12,2 C 7,8 C 88 % 1000,0 hPa 0,0 l/m 0 min 0 min 236 W/m 25,7 km/h (4 Bft) 100,00 %
17.03.2019 11:54 8,9 C 12,2 C 7,8 C 87 % 999,9 hPa 0,0 l/m 0 min 0 min 244 W/m 16,1 km/h (3 Bft) 100,00 %
17.03.2019 11:56 9,1 C 16,1 C 8,9 C 88 % 1000,0 hPa 0,0 l/m 2 min 0 min 532 W/m 12,9 km/h (3 Bft) 97,87 %
17.03.2019 11:58 9,2 C 15,6 C 8,3 C 88 % 1000,1 hPa 0,0 l/m 2 min 0 min 837 W/m 29,0 km/h (5 Bft) 100,00 %
17.03.2019 12:00 9,4 C 15,0 C 8,9 C 87 % 1000,1 hPa 0,0 l/m 2 min 0 min 794 W/m 25,7 km/h (4 Bft) 97,87 %
17.03.2019 12:02 9,5 C 12,8 C 8,3 C 87 % 1000,1 hPa 0,0 l/m 2 min 2 min 457 W/m 22,5 km/h (4 Bft) 97,87 %
17.03.2019 12:04 9,5 C 11,1 C 7,8 C 86 % 1000,0 hPa 0,0 l/m 0 min 2 min 177 W/m 22,5 km/h (4 Bft) 97,87 %
17.03.2019 12:07 9,6 C 11,7 C 8,3 C 85 % 1000,1 hPa 0,0 l/m 0 min 0 min 293 W/m 32,2 km/h (5 Bft) 100,00 %
17.03.2019 12:08 9,6 C 11,1 C 8,3 C 84 % 1000,1 hPa 0,0 l/m 0 min 0 min 163 W/m 9,7 km/h (2 Bft) 100,00 %
17.03.2019 12:10 9,6 C 10,0 C 7,8 C 84 % 1000,2 hPa 0,0 l/m 0 min 2 min 94 W/m 19,3 km/h (3 Bft) 100,00 %
17.03.2019 12:12 9,6 C 8,9 C 7,2 C 84 % 1000,2 hPa 0,0 l/m 0 min 2 min 92 W/m 35,4 km/h (5 Bft) 100,00 %
17.03.2019 12:14 9,4 C 8,3 C 6,7 C 83 % 1000,3 hPa 0,0 l/m 0 min 2 min 97 W/m 29,0 km/h (5 Bft) 100,00 %
17.03.2019 12:16 9,2 C 8,3 C 6,7 C 82 % 1000,3 hPa 0,0 l/m 0 min 2 min 100 W/m 25,7 km/h (4 Bft) 97,87 %
17.03.2019 12:18 9,1 C 11,1 C 6,7 C 82 % 1000,3 hPa 0,0 l/m 0 min 2 min 144 W/m 19,3 km/h (3 Bft) 100,00 %
17.03.2019 12:20 9,1 C 13,9 C 7,2 C 83 % 1000,2 hPa 0,0 l/m 2 min 0 min 643 W/m 22,5 km/h (4 Bft) 100,00 %
17.03.2019 12:22 9,2 C 15,0 C 7,2 C 83 % 1000,3 hPa 0,0 l/m 2 min 0 min 665 W/m 19,3 km/h (3 Bft) 100,00 %
17.03.2019 12:24 9,2 C 14,4 C 7,2 C 83 % 1000,2 hPa 0,0 l/m 2 min 0 min 667 W/m 29,0 km/h (5 Bft) 100,00 %
17.03.2019 12:26 9,3 C 15,6 C 7,8 C 82 % 1000,4 hPa 0,0 l/m 2 min 0 min 669 W/m 25,7 km/h (4 Bft) 100,00 %
17.03.2019 12:28 9,4 C 15,6 C 7,8 C 82 % 1000,5 hPa 0,0 l/m 2 min 0 min 674 W/m 22,5 km/h (4 Bft) 100,00 %
17.03.2019 12:30 9,6 C 16,7 C 8,3 C 82 % 1000,5 hPa 0,0 l/m 2 min 0 min 680 W/m 25,7 km/h (4 Bft) 100,00 %
17.03.2019 12:32 9,8 C 16,7 C 8,9 C 82 % 1000,6 hPa 0,0 l/m 2 min 0 min 698 W/m 29,0 km/h (5 Bft) 100,00 %
17.03.2019 12:34 9,9 C 14,4 C 9,4 C 82 % 1000,6 hPa 0,0 l/m 2 min 0 min 694 W/m 22,5 km/h (4 Bft) 97,87 %
17.03.2019 12:36 9,9 C 12,2 C 8,9 C 79 % 1000,7 hPa 0,0 l/m 0 min 0 min 299 W/m 22,5 km/h (4 Bft) 97,87 %
17.03.2019 12:38 9,9 C 14,4 C 10,6 C 79 % 1000,7 hPa 0,0 l/m 2 min 0 min 561 W/m 19,3 km/h (3 Bft) 97,87 %
17.03.2019 12:40 9,9 C 15,0 C 11,7 C 79 % 1000,6 hPa 0,0 l/m 2 min 0 min 809 W/m 29,0 km/h (5 Bft) 97,87 %
17.03.2019 12:42 10,0 C 15,0 C 11,7 C 79 % 1000,6 hPa 0,0 l/m 2 min 0 min 667 W/m 25,7 km/h (4 Bft) 97,83 %
17.03.2019 12:44 10,1 C 15,6 C 13,3 C 79 % 1000,7 hPa 0,0 l/m 2 min 0 min 671 W/m 16,1 km/h (3 Bft) 97,87 %
17.03.2019 12:46 10,2 C 16,7 C 15,0 C 79 % 1000,7 hPa 0,0 l/m 2 min 0 min 697 W/m 38,6 km/h (5 Bft) 97,87 %
17.03.2019 12:48 10,3 C 16,1 C 15,0 C 78 % 1000,8 hPa 0,0 l/m 2 min 0 min 692 W/m 22,5 km/h (4 Bft) 97,87 %
17.03.2019 12:50 10,4 C 16,1 C 15,6 C 77 % 1000,8 hPa 0,0 l/m 2 min 0 min 697 W/m 16,1 km/h (3 Bft) 97,87 %
17.03.2019 12:52 10,4 C 15,6 C 14,4 C 76 % 1000,9 hPa 0,0 l/m 2 min 0 min 713 W/m 16,1 km/h (3 Bft) 97,87 %
17.03.2019 12:54 10,5 C 15,6 C 15,0 C 75 % 1000,9 hPa 0,0 l/m 2 min 0 min 709 W/m 29,0 km/h (5 Bft) 97,83 %
17.03.2019 12:56 10,6 C 16,7 C 15,6 C 76 % 1000,9 hPa 0,0 l/m 2 min 0 min 719 W/m 16,1 km/h (3 Bft) 97,87 %
17.03.2019 12:58 10,7 C 15,6 C 15,6 C 75 % 1000,9 hPa 0,0 l/m 2 min 0 min 746 W/m 19,3 km/h (3 Bft) 97,87 %
17.03.2019 13:00 10,7 C 15,6 C 15,6 C 75 % 1000,9 hPa 0,0 l/m 2 min 0 min 719 W/m 19,3 km/h (3 Bft) 97,87 %
17.03.2019 13:02 10,8 C 15,6 C 15,0 C 75 % 1000,9 hPa 0,0 l/m 2 min 0 min 739 W/m 16,1 km/h (3 Bft) 93,62 %
17.03.2019 13:04 10,8 C 13,3 C 12,2 C 73 % 1001,0 hPa 0,0 l/m 2 min 0 min 392 W/m 25,7 km/h (4 Bft) 97,87 %
17.03.2019 13:06 10,8 C 12,8 C 11,7 C 73 % 1001,0 hPa 0,0 l/m 0 min 0 min 209 W/m 29,0 km/h (5 Bft) 95,65 %
17.03.2019 13:08 10,7 C 11,7 C 10,6 C 73 % 1001,0 hPa 0,0 l/m 0 min 0 min 220 W/m 22,5 km/h (4 Bft) 97,87 %
17.03.2019 13:10 10,6 C 12,2 C 11,7 C 73 % 1001,1 hPa 0,0 l/m 0 min 0 min 247 W/m 22,5 km/h (4 Bft) 97,87 %
17.03.2019 13:12 10,5 C 12,2 C 10,6 C 73 % 1001,1 hPa 0,0 l/m 0 min 0 min 275 W/m 25,7 km/h (4 Bft) 95,74 %
17.03.2019 13:14 10,4 C 13,9 C 13,3 C 73 % 1001,2 hPa 0,0 l/m 2 min 0 min 654 W/m 25,7 km/h (4 Bft) 100,00 %
17.03.2019 13:16 10,4 C 11,7 C 11,1 C 71 % 1001,2 hPa 0,0 l/m 2 min 0 min 705 W/m 32,2 km/h (5 Bft) 100,00 %
17.03.2019 13:18 10,3 C 11,7 C 10,6 C 70 % 1001,3 hPa 0,0 l/m 2 min 0 min 365 W/m 22,5 km/h (4 Bft) 100,00 %
17.03.2019 13:20 10,2 C 11,1 C 10,0 C 71 % 1001,4 hPa 0,0 l/m 0 min 0 min 283 W/m 22,5 km/h (4 Bft) 100,00 %
17.03.2019 13:22 10,1 C 9,4 C 8,9 C 71 % 1001,8 hPa 0,0 l/m 0 min 2 min 175 W/m 32,2 km/h (5 Bft) 95,74 %
17.03.2019 13:24 9,9 C 8,3 C 7,8 C 72 % 1001,8 hPa 0,0 l/m 0 min 2 min 153 W/m 29,0 km/h (5 Bft) 93,62 %
17.03.2019 13:26 9,7 C 7,8 C 7,2 C 73 % 1002,0 hPa 0,0 l/m 0 min 2 min 147 W/m 32,2 km/h (5 Bft) 97,87 %
17.03.2019 13:28 9,4 C 7,2 C 7,2 C 72 % 1002,1 hPa 0,0 l/m 0 min 2 min 144 W/m 19,3 km/h (3 Bft) 97,83 %
17.03.2019 13:30 9,1 C 6,7 C 6,1 C 72 % 1002,0 hPa 0,0 l/m 0 min 2 min 125 W/m 25,7 km/h (4 Bft) 95,74 %
17.03.2019 13:32 8,8 C 5,6 C 5,6 C 73 % 1002,1 hPa 0,0 l/m 0 min 2 min 91 W/m 38,6 km/h (5 Bft) 95,74 %
17.03.2019 13:34 8,5 C 5,0 C 5,0 C 75 % 1001,9 hPa 0,0 l/m 0 min 2 min 68 W/m 35,4 km/h (5 Bft) 95,74 %
17.03.2019 13:36 8,2 C 5,0 C 5,0 C 75 % 1001,8 hPa 0,0 l/m 0 min 2 min 93 W/m 22,5 km/h (4 Bft) 97,87 %
17.03.2019 13:38 8,0 C 5,0 C 5,0 C 76 % 1001,6 hPa 0,0 l/m 0 min 2 min 108 W/m 19,3 km/h (3 Bft) 97,87 %
17.03.2019 13:40 7,8 C 5,6 C 5,6 C 76 % 1001,6 hPa 0,0 l/m 0 min 2 min 152 W/m 9,7 km/h (2 Bft) 93,48 %
17.03.2019 13:42 7,7 C 6,1 C 5,6 C 77 % 1001,6 hPa 0,0 l/m 0 min 2 min 207 W/m 19,3 km/h (3 Bft) 97,22 %
17.03.2019 13:44 7,7 C 6,7 C 6,1 C 77 % 1001,5 hPa 0,0 l/m 0 min 2 min 240 W/m 16,1 km/h (3 Bft) 93,48 %
17.03.2019 13:46 7,6 C 7,2 C 6,1 C 78 % 1001,6 hPa 0,0 l/m 0 min 2 min 186 W/m 16,1 km/h (3 Bft) 97,87 %
17.03.2019 13:48 7,6 C 8,9 C 7,2 C 78 % 1001,5 hPa 0,0 l/m 0 min 2 min 269 W/m 16,1 km/h (3 Bft) 97,87 %
17.03.2019 13:50 7,6 C 9,4 C 7,2 C 78 % 1001,6 hPa 0,0 l/m 2 min 0 min 629 W/m 22,5 km/h (4 Bft) 95,74 %
17.03.2019 13:52 7,6 C 10,6 C 7,8 C 79 % 1001,5 hPa 0,0 l/m 2 min 0 min 546 W/m 12,9 km/h (3 Bft) 95,74 %
17.03.2019 13:54 7,7 C 12,2 C 8,3 C 79 % 1001,6 hPa 0,0 l/m 2 min 0 min 590 W/m 16,1 km/h (3 Bft) 95,74 %
17.03.2019 13:56 7,9 C 13,9 C 8,3 C 80 % 1001,6 hPa 0,0 l/m 2 min 0 min 615 W/m 16,1 km/h (3 Bft) 97,83 %
17.03.2019 13:58 8,1 C 11,1 C 7,8 C 80 % 1001,7 hPa 0,0 l/m 2 min 2 min 410 W/m 19,3 km/h (3 Bft) 95,74 %
17.03.2019 14:00 8,1 C 9,4 C 7,8 C 80 % 1001,7 hPa 0,0 l/m 0 min 2 min 196 W/m 16,1 km/h (3 Bft) 95,74 %
17.03.2019 14:02 8,2 C 9,4 C 7,8 C 80 % 1001,7 hPa 0,0 l/m 0 min 2 min 226 W/m 25,7 km/h (4 Bft) 91,49 %
17.03.2019 14:04 8,2 C 8,3 C 7,8 C 79 % 1001,9 hPa 0,0 l/m 0 min 2 min 227 W/m 32,2 km/h (5 Bft) 95,74 %
17.03.2019 14:06 8,2 C 8,3 C 7,8 C 78 % 1001,9 hPa 0,0 l/m 0 min 0 min 189 W/m 25,7 km/h (4 Bft) 96,55 %
17.03.2019 14:08 8,2 C 7,8 C 7,8 C 78 % 1001,8 hPa 0,0 l/m 0 min 0 min 179 W/m 25,7 km/h (4 Bft) 95,74 %
17.03.2019 14:10 8,2 C 7,8 C 7,8 C 78 % 1001,9 hPa 0,0 l/m 0 min 0 min 181 W/m 22,5 km/h (4 Bft) 94,29 %
17.03.2019 14:12 8,2 C 8,3 C 7,8 C 78 % 1001,8 hPa 0,0 l/m 0 min 0 min 196 W/m 16,1 km/h (3 Bft) 97,87 %
17.03.2019 14:14 8,2 C 8,3 C 7,8 C 78 % 1001,9 hPa 0,0 l/m 0 min 0 min 195 W/m 25,7 km/h (4 Bft) 95,74 %
17.03.2019 14:16 8,2 C 8,3 C 7,8 C 78 % 1001,9 hPa 0,0 l/m 0 min 0 min 199 W/m 16,1 km/h (3 Bft) 97,87 %
17.03.2019 14:18 8,2 C 8,9 C 7,8 C 78 % 1001,9 hPa 0,0 l/m 0 min 0 min 231 W/m 16,1 km/h (3 Bft) 97,83 %
17.03.2019 14:20 8,2 C 10,0 C 8,3 C 78 % 1002,0 hPa 0,0 l/m 2 min 0 min 350 W/m 22,5 km/h (4 Bft) 95,74 %
17.03.2019 14:22 8,2 C 11,1 C 8,3 C 78 % 1002,0 hPa 0,0 l/m 2 min 0 min 480 W/m 22,5 km/h (4 Bft) 97,87 %
17.03.2019 14:24 8,3 C 12,2 C 8,9 C 79 % 1002,0 hPa 0,0 l/m 2 min 0 min 652 W/m 32,2 km/h (5 Bft) 97,87 %
17.03.2019 14:26 8,4 C 13,3 C 8,9 C 79 % 1001,9 hPa 0,0 l/m 2 min 0 min 646 W/m 22,5 km/h (4 Bft) 97,87 %
17.03.2019 14:28 8,6 C 12,2 C 8,3 C 78 % 1001,9 hPa 0,0 l/m 2 min 0 min 654 W/m 22,5 km/h (4 Bft) 97,87 %
17.03.2019 14:30 8,6 C 10,6 C 8,3 C 78 % 1001,9 hPa 0,0 l/m 2 min 0 min 370 W/m 16,1 km/h (3 Bft) 97,83 %
17.03.2019 14:32 8,7 C 12,2 C 8,3 C 78 % 1002,0 hPa 0,0 l/m 0 min 0 min 167 W/m 16,1 km/h (3 Bft) 97,87 %
17.03.2019 14:34 8,8 C 13,9 C 8,9 C 79 % 1002,0 hPa 0,0 l/m 2 min 0 min 574 W/m 19,3 km/h (3 Bft) 93,62 %
17.03.2019 14:36 9,0 C 14,4 C 8,9 C 79 % 1002,0 hPa 0,0 l/m 2 min 0 min 613 W/m 12,9 km/h (3 Bft) 98,31 %
17.03.2019 14:38 9,2 C 15,0 C 8,9 C 79 % 1002,0 hPa 0,0 l/m 2 min 0 min 600 W/m 25,7 km/h (4 Bft) 97,14 %
17.03.2019 14:40 9,3 C 13,9 C 8,9 C 79 % 1002,0 hPa 0,0 l/m 2 min 0 min 576 W/m 22,5 km/h (4 Bft) 95,74 %
17.03.2019 14:42 9,4 C 14,4 C 8,9 C 78 % 1002,1 hPa 0,0 l/m 2 min 0 min 601 W/m 16,1 km/h (3 Bft) 97,83 %
17.03.2019 14:44 9,5 C 13,9 C 8,9 C 78 % 1002,0 hPa 0,0 l/m 2 min 0 min 624 W/m 32,2 km/h (5 Bft) 95,74 %
17.03.2019 14:46 9,6 C 15,0 C 9,4 C 77 % 1002,1 hPa 0,0 l/m 2 min 0 min 658 W/m 12,9 km/h (3 Bft) 100,00 %
17.03.2019 14:48 9,7 C 16,1 C 10,0 C 78 % 1002,1 hPa 0,0 l/m 2 min 0 min 617 W/m 12,9 km/h (3 Bft) 95,74 %
17.03.2019 14:50 9,8 C 15,0 C 10,0 C 78 % 1002,1 hPa 0,0 l/m 2 min 0 min 596 W/m 19,3 km/h (3 Bft) 95,74 %
17.03.2019 14:52 10,0 C 15,0 C 10,0 C 77 % 1002,0 hPa 0,0 l/m 2 min 0 min 592 W/m 19,3 km/h (3 Bft) 97,87 %
17.03.2019 14:54 10,1 C 14,4 C 9,4 C 76 % 1002,0 hPa 0,0 l/m 2 min 0 min 591 W/m 22,5 km/h (4 Bft) 97,83 %
17.03.2019 14:56 10,2 C 15,0 C 9,4 C 75 % 1002,1 hPa 0,0 l/m 2 min 0 min 587 W/m 22,5 km/h (4 Bft) 97,87 %
17.03.2019 14:58 10,2 C 15,0 C 9,4 C 75 % 1002,2 hPa 0,0 l/m 2 min 0 min 599 W/m 19,3 km/h (3 Bft) 95,74 %
17.03.2019 15:00 10,3 C 15,6 C 10,0 C 75 % 1002,2 hPa 0,0 l/m 2 min 0 min 614 W/m 16,1 km/h (3 Bft) 97,87 %
17.03.2019 15:02 10,4 C 13,9 C 9,4 C 73 % 1002,1 hPa 0,0 l/m 2 min 0 min 649 W/m 22,5 km/h (4 Bft) 95,74 %
17.03.2019 15:04 10,4 C 11,7 C 9,4 C 72 % 1002,2 hPa 0,0 l/m 2 min 0 min 273 W/m 16,1 km/h (3 Bft) 95,74 %
17.03.2019 15:06 10,3 C 11,7 C 9,4 C 71 % 1002,2 hPa 0,0 l/m 2 min 0 min 298 W/m 25,7 km/h (4 Bft) 96,55 %
17.03.2019 15:08 10,3 C 11,1 C 9,4 C 72 % 1002,2 hPa 0,0 l/m 2 min 0 min 276 W/m 29,0 km/h (5 Bft) 97,14 %
17.03.2019 15:10 10,2 C 10,6 C 9,4 C 72 % 1002,3 hPa 0,0 l/m 0 min 0 min 196 W/m 25,7 km/h (4 Bft) 93,62 %
17.03.2019 15:12 10,1 C 10,6 C 8,9 C 72 % 1002,3 hPa 0,0 l/m 0 min 0 min 139 W/m 22,5 km/h (4 Bft) 93,62 %
17.03.2019 15:14 10,0 C 10,0 C 8,9 C 72 % 1002,4 hPa 0,0 l/m 0 min 0 min 119 W/m 32,2 km/h (5 Bft) 95,74 %
17.03.2019 15:16 9,9 C 9,4 C 8,3 C 71 % 1002,4 hPa 0,0 l/m 0 min 0 min 90 W/m 22,5 km/h (4 Bft) 97,87 %
17.03.2019 15:18 9,7 C 8,3 C 7,8 C 71 % 1002,4 hPa 0,0 l/m 0 min 0 min 88 W/m 41,8 km/h (6 Bft) 97,83 %
17.03.2019 15:20 9,4 C 8,3 C 7,8 C 72 % 1002,6 hPa 0,0 l/m 0 min 0 min 88 W/m 25,7 km/h (4 Bft) 97,87 %
17.03.2019 15:22 9,3 C 7,8 C 7,2 C 72 % 1002,6 hPa 0,0 l/m 0 min 0 min 77 W/m 22,5 km/h (4 Bft) 97,87 %
17.03.2019 15:24 9,1 C 7,8 C 7,2 C 72 % 1002,6 hPa 0,0 l/m 0 min 0 min 71 W/m 29,0 km/h (5 Bft) 97,87 %
17.03.2019 15:26 8,9 C 7,8 C 7,2 C 73 % 1002,6 hPa 0,0 l/m 0 min 0 min 83 W/m 25,7 km/h (4 Bft) 97,87 %
17.03.2019 15:28 8,7 C 7,8 C 7,2 C 74 % 1002,7 hPa 0,0 l/m 0 min 0 min 97 W/m 25,7 km/h (4 Bft) 97,83 %
17.03.2019 15:30 8,6 C 7,8 C 7,2 C 74 % 1002,7 hPa 0,0 l/m 0 min 0 min 115 W/m 22,5 km/h (4 Bft) 97,87 %
17.03.2019 15:32 8,5 C 7,8 C 7,2 C 75 % 1002,8 hPa 0,0 l/m 0 min 0 min 124 W/m 16,1 km/h (3 Bft) 97,87 %
17.03.2019 15:34 8,4 C 7,8 C 7,2 C 76 % 1002,8 hPa 0,0 l/m 0 min 0 min 122 W/m 16,1 km/h (3 Bft) 97,87 %
17.03.2019 15:36 8,4 C 7,8 C 7,8 C 76 % 1002,8 hPa 0,0 l/m 0 min 0 min 132 W/m 9,7 km/h (2 Bft) 100,00 %
17.03.2019 15:38 8,3 C 7,8 C 7,2 C 76 % 1002,8 hPa 0,0 l/m 0 min 0 min 138 W/m 12,9 km/h (3 Bft) 97,14 %
17.03.2019 15:40 8,3 C 7,8 C 7,8 C 77 % 1002,8 hPa 0,0 l/m 0 min 0 min 131 W/m 9,7 km/h (2 Bft) 97,83 %
17.03.2019 15:42 8,3 C 7,8 C 7,8 C 77 % 1002,8 hPa 0,0 l/m 0 min 0 min 123 W/m 12,9 km/h (3 Bft) 97,87 %
17.03.2019 15:44 8,2 C 7,8 C 7,8 C 78 % 1002,8 hPa 0,0 l/m 0 min 0 min 114 W/m 16,1 km/h (3 Bft) 97,87 %
17.03.2019 15:46 8,2 C 7,8 C 7,8 C 78 % 1002,8 hPa 0,0 l/m 0 min 0 min 119 W/m 22,5 km/h (4 Bft) 97,87 %
17.03.2019 15:48 8,2 C 7,8 C 7,8 C 78 % 1002,8 hPa 0,0 l/m 0 min 0 min 130 W/m 25,7 km/h (4 Bft) 97,87 %
17.03.2019 15:50 8,2 C 8,3 C 7,8 C 78 % 1002,7 hPa 0,0 l/m 0 min 0 min 167 W/m 16,1 km/h (3 Bft) 97,87 %
17.03.2019 15:52 8,2 C 8,3 C 7,8 C 78 % 1002,8 hPa 0,0 l/m 0 min 0 min 192 W/m 19,3 km/h (3 Bft) 100,00 %
17.03.2019 15:54 8,2 C 8,3 C 7,8 C 78 % 1002,8 hPa 0,0 l/m 0 min 0 min 161 W/m 12,9 km/h (3 Bft) 97,87 %
17.03.2019 15:56 8,2 C 8,9 C 8,3 C 78 % 1002,8 hPa 0,0 l/m 0 min 0 min 140 W/m 12,9 km/h (3 Bft) 97,87 %
17.03.2019 15:58 8,2 C 8,3 C 7,8 C 79 % 1002,8 hPa 0,0 l/m 0 min 0 min 123 W/m 12,9 km/h (3 Bft) 97,87 %
17.03.2019 16:00 8,3 C 8,9 C 7,8 C 78 % 1002,9 hPa 0,0 l/m 0 min 0 min 124 W/m 12,9 km/h (3 Bft) 97,87 %
17.03.2019 16:02 8,3 C 8,9 C 7,8 C 79 % 1002,9 hPa 0,0 l/m 0 min 0 min 114 W/m 9,7 km/h (2 Bft) 95,74 %
17.03.2019 16:04 8,3 C 8,3 C 7,8 C 79 % 1002,9 hPa 0,0 l/m 0 min 0 min 93 W/m 9,7 km/h (2 Bft) 95,65 %
17.03.2019 16:06 8,3 C 8,3 C 7,8 C 79 % 1003,0 hPa 0,0 l/m 0 min 2 min 90 W/m 19,3 km/h (3 Bft) 98,31 %
17.03.2019 16:08 8,3 C 8,3 C 7,8 C 78 % 1003,0 hPa 0,0 l/m 0 min 2 min 91 W/m 12,9 km/h (3 Bft) 94,29 %
17.03.2019 16:10 8,3 C 7,8 C 7,8 C 78 % 1002,9 hPa 0,0 l/m 0 min 0 min 91 W/m 19,3 km/h (3 Bft) 95,74 %
17.03.2019 16:12 8,3 C 8,3 C 7,8 C 78 % 1002,9 hPa 0,0 l/m 0 min 2 min 88 W/m 12,9 km/h (3 Bft) 97,87 %
17.03.2019 16:14 8,3 C 7,8 C 7,8 C 78 % 1002,9 hPa 0,0 l/m 0 min 0 min 63 W/m 9,7 km/h (2 Bft) 97,87 %
17.03.2019 16:16 8,3 C 7,8 C 7,8 C 78 % 1002,9 hPa 0,0 l/m 0 min 0 min 36 W/m 9,7 km/h (2 Bft) 97,83 %
17.03.2019 16:18 8,3 C 7,8 C 7,2 C 77 % 1002,9 hPa 0,0 l/m 0 min 0 min 28 W/m 9,7 km/h (2 Bft) 95,74 %
17.03.2019 16:20 8,3 C 7,8 C 7,2 C 77 % 1003,0 hPa 0,0 l/m 0 min 2 min 26 W/m 16,1 km/h (3 Bft) 93,62 %
17.03.2019 16:22 8,2 C 7,2 C 7,2 C 77 % 1003,1 hPa 0,0 l/m 0 min 2 min 24 W/m 12,9 km/h (3 Bft) 95,74 %
17.03.2019 16:24 8,2 C 7,2 C 7,2 C 77 % 1003,1 hPa 0,0 l/m 0 min 2 min 37 W/m 9,7 km/h (2 Bft) 97,87 %
17.03.2019 16:26 8,2 C 7,2 C 7,2 C 78 % 1003,1 hPa 0,0 l/m 0 min 0 min 52 W/m 9,7 km/h (2 Bft) 97,87 %
17.03.2019 16:28 8,2 C 7,2 C 7,2 C 78 % 1003,2 hPa 0,0 l/m 0 min 0 min 70 W/m 16,1 km/h (3 Bft) 97,83 %
17.03.2019 16:30 8,2 C 7,8 C 7,2 C 78 % 1003,2 hPa 0,0 l/m 0 min 0 min 80 W/m 19,3 km/h (3 Bft) 97,87 %
17.03.2019 16:32 8,2 C 7,8 C 7,2 C 77 % 1003,1 hPa 0,0 l/m 0 min 0 min 76 W/m 16,1 km/h (3 Bft) 97,87 %
17.03.2019 16:34 8,2 C 7,8 C 7,2 C 76 % 1003,1 hPa 0,0 l/m 0 min 0 min 80 W/m 22,5 km/h (4 Bft) 97,87 %
17.03.2019 16:36 8,1 C 7,8 C 7,2 C 76 % 1003,2 hPa 0,0 l/m 0 min 0 min 86 W/m 16,1 km/h (3 Bft) 98,28 %
17.03.2019 16:38 8,1 C 8,9 C 7,8 C 75 % 1003,2 hPa 0,0 l/m 2 min 0 min 183 W/m 19,3 km/h (3 Bft) 100,00 %
17.03.2019 16:40 8,2 C 8,9 C 7,8 C 75 % 1003,3 hPa 0,0 l/m 2 min 0 min 218 W/m 16,1 km/h (3 Bft) 100,00 %
17.03.2019 16:42 8,2 C 8,9 C 7,8 C 76 % 1003,3 hPa 0,0 l/m 2 min 2 min 203 W/m 25,7 km/h (4 Bft) 97,87 %
17.03.2019 16:44 8,2 C 8,3 C 7,8 C 76 % 1003,3 hPa 0,0 l/m 2 min 2 min 182 W/m 16,1 km/h (3 Bft) 95,74 %
17.03.2019 16:46 8,3 C 8,3 C 7,8 C 77 % 1003,3 hPa 0,0 l/m 0 min 2 min 135 W/m 12,9 km/h (3 Bft) 100,00 %
17.03.2019 16:48 8,3 C 7,8 C 7,2 C 77 % 1003,3 hPa 0,0 l/m 0 min 0 min 116 W/m 22,5 km/h (4 Bft) 100,00 %
17.03.2019 16:50 8,2 C 7,8 C 7,2 C 76 % 1003,4 hPa 0,0 l/m 0 min 0 min 104 W/m 19,3 km/h (3 Bft) 100,00 %
17.03.2019 16:52 8,2 C 7,8 C 7,2 C 76 % 1003,4 hPa 0,0 l/m 0 min 0 min 101 W/m 12,9 km/h (3 Bft) 100,00 %
17.03.2019 16:54 8,2 C 7,8 C 7,2 C 77 % 1003,4 hPa 0,0 l/m 0 min 0 min 104 W/m 12,9 km/h (3 Bft) 98,15 %
17.03.2019 16:56 8,1 C 7,8 C 7,2 C 76 % 1003,4 hPa 0,0 l/m 0 min 0 min 102 W/m 12,9 km/h (3 Bft) 100,00 %
17.03.2019 16:58 8,1 C 7,8 C 7,2 C 77 % 1003,4 hPa 0,0 l/m 0 min 0 min 101 W/m 9,7 km/h (2 Bft) 100,00 %
17.03.2019 17:00 8,1 C 7,8 C 7,2 C 77 % 1003,4 hPa 0,0 l/m 0 min 0 min 112 W/m 12,9 km/h (3 Bft) 100,00 %
17.03.2019 17:02 8,0 C 7,8 C 7,2 C 77 % 1003,4 hPa 0,0 l/m 2 min 0 min 135 W/m 16,1 km/h (3 Bft) 97,87 %
17.03.2019 17:04 8,0 C 8,3 C 7,8 C 77 % 1003,4 hPa 0,0 l/m 2 min 0 min 156 W/m 16,1 km/h (3 Bft) 100,00 %
17.03.2019 17:06 8,0 C 8,3 C 7,8 C 77 % 1003,4 hPa 0,0 l/m 2 min 0 min 155 W/m 12,9 km/h (3 Bft) 100,00 %
17.03.2019 17:08 8,1 C 8,3 C 7,8 C 77 % 1003,4 hPa 0,0 l/m 2 min 0 min 123 W/m 9,7 km/h (2 Bft) 100,00 %
17.03.2019 17:10 8,1 C 7,8 C 7,2 C 77 % 1003,4 hPa 0,0 l/m 0 min 0 min 89 W/m 22,5 km/h (4 Bft) 100,00 %
17.03.2019 17:12 8,1 C 7,8 C 7,2 C 77 % 1003,5 hPa 0,0 l/m 0 min 0 min 70 W/m 16,1 km/h (3 Bft) 100,00 %
17.03.2019 17:14 8,1 C 7,8 C 7,2 C 77 % 1003,5 hPa 0,0 l/m 0 min 0 min 56 W/m 16,1 km/h (3 Bft) 97,87 %
17.03.2019 17:16 8,1 C 7,8 C 7,2 C 77 % 1003,5 hPa 0,0 l/m 0 min 0 min 51 W/m 16,1 km/h (3 Bft) 100,00 %
17.03.2019 17:18 8,0 C 7,2 C 7,2 C 77 % 1003,5 hPa 0,0 l/m 0 min 0 min 49 W/m 12,9 km/h (3 Bft) 97,87 %
17.03.2019 17:20 8,0 C 7,2 C 6,7 C 77 % 1003,6 hPa 0,0 l/m 0 min 0 min 48 W/m 12,9 km/h (3 Bft) 100,00 %
17.03.2019 17:22 8,0 C 7,2 C 6,7 C 77 % 1003,6 hPa 0,0 l/m 0 min 0 min 47 W/m 16,1 km/h (3 Bft) 97,83 %
17.03.2019 17:24 7,9 C 7,2 C 6,7 C 77 % 1003,6 hPa 0,0 l/m 0 min 0 min 46 W/m 9,7 km/h (2 Bft) 97,87 %
17.03.2019 17:26 7,9 C 7,2 C 6,7 C 77 % 1003,7 hPa 0,0 l/m 0 min 0 min 44 W/m 12,9 km/h (3 Bft) 95,74 %
17.03.2019 17:28 7,9 C 7,2 C 6,7 C 77 % 1003,7 hPa 0,0 l/m 0 min 0 min 42 W/m 9,7 km/h (2 Bft) 100,00 %
17.03.2019 17:30 7,8 C 7,2 C 6,7 C 77 % 1003,8 hPa 0,0 l/m 0 min 0 min 42 W/m 12,9 km/h (3 Bft) 97,87 %
17.03.2019 17:32 7,8 C 6,7 C 6,7 C 77 % 1003,7 hPa 0,0 l/m 0 min 0 min 42 W/m 12,9 km/h (3 Bft) 100,00 %
17.03.2019 17:34 7,8 C 6,7 C 6,7 C 77 % 1003,8 hPa 0,0 l/m 0 min 0 min 40 W/m 12,9 km/h (3 Bft) 97,83 %
17.03.2019 17:36 7,7 C 6,7 C 6,1 C 78 % 1003,9 hPa 0,0 l/m 0 min 0 min 40 W/m 16,1 km/h (3 Bft) 98,31 %
17.03.2019 17:38 7,7 C 6,7 C 6,1 C 78 % 1003,9 hPa 0,0 l/m 0 min 0 min 39 W/m 12,9 km/h (3 Bft) 97,14 %
17.03.2019 17:40 7,6 C 6,7 C 6,1 C 78 % 1003,9 hPa 0,0 l/m 0 min 0 min 37 W/m 16,1 km/h (3 Bft) 97,87 %
17.03.2019 17:42 7,6 C 6,7 C 6,1 C 78 % 1004,0 hPa 0,0 l/m 0 min 0 min 39 W/m 16,1 km/h (3 Bft) 97,87 %
17.03.2019 17:44 7,5 C 6,7 C 6,1 C 78 % 1004,0 hPa 0,0 l/m 0 min 0 min 39 W/m 9,7 km/h (2 Bft) 97,87 %
17.03.2019 17:46 7,5 C 6,7 C 6,1 C 78 % 1004,1 hPa 0,0 l/m 0 min 0 min 37 W/m 6,4 km/h (2 Bft) 95,65 %
17.03.2019 17:48 7,4 C 6,7 C 6,1 C 78 % 1004,1 hPa 0,0 l/m 0 min 0 min 37 W/m 9,7 km/h (2 Bft) 97,87 %
17.03.2019 17:50 7,4 C 6,7 C 6,1 C 78 % 1004,2 hPa 0,0 l/m 0 min 0 min 35 W/m 16,1 km/h (3 Bft) 97,87 %
17.03.2019 17:52 7,4 C 6,7 C 6,1 C 79 % 1004,2 hPa 0,0 l/m 0 min 0 min 32 W/m 9,7 km/h (2 Bft) 97,87 %
17.03.2019 17:54 7,3 C 6,7 C 6,1 C 79 % 1004,3 hPa 0,0 l/m 0 min 0 min 31 W/m 12,9 km/h (3 Bft) 97,87 %
17.03.2019 17:56 7,3 C 6,7 C 6,1 C 79 % 1004,4 hPa 0,0 l/m 0 min 0 min 26 W/m 16,1 km/h (3 Bft) 93,62 %
17.03.2019 17:58 7,3 C 6,7 C 6,1 C 78 % 1004,4 hPa 0,0 l/m 0 min 0 min 21 W/m 6,4 km/h (2 Bft) 97,83 %
17.03.2019 18:00 7,3 C 6,7 C 6,1 C 78 % 1004,5 hPa 0,0 l/m 0 min 0 min 19 W/m 6,4 km/h (2 Bft) 97,87 %
17.03.2019 18:02 7,3 C 6,7 C 6,1 C 79 % 1004,5 hPa 0,0 l/m 0 min 0 min 19 W/m 9,7 km/h (2 Bft) 97,87 %
17.03.2019 18:04 7,2 C 6,7 C 6,1 C 79 % 1004,5 hPa 0,0 l/m 0 min 0 min 19 W/m 6,4 km/h (2 Bft) 97,87 %
17.03.2019 18:07 7,2 C 6,7 C 6,1 C 79 % 1004,5 hPa 0,0 l/m 0 min 0 min 16 W/m 9,7 km/h (2 Bft) 97,14 %
17.03.2019 18:08 7,2 C 6,1 C 6,1 C 79 % 1004,5 hPa 0,0 l/m 0 min 0 min 14 W/m 6,4 km/h (2 Bft) 100,00 %
17.03.2019 18:10 7,2 C 6,1 C 6,1 C 79 % 1004,6 hPa 0,0 l/m 0 min 0 min 12 W/m 9,7 km/h (2 Bft) 97,87 %
17.03.2019 18:12 7,2 C 6,1 C 6,1 C 80 % 1004,7 hPa 0,0 l/m 0 min 0 min 11 W/m 6,4 km/h (2 Bft) 97,87 %
17.03.2019 18:14 7,2 C 6,1 C 6,1 C 80 % 1004,7 hPa 0,0 l/m 0 min 0 min 15 W/m 6,4 km/h (2 Bft) 97,87 %
17.03.2019 18:16 7,1 C 6,1 C 6,1 C 80 % 1004,6 hPa 0,0 l/m 0 min 0 min 19 W/m 12,9 km/h (3 Bft) 95,74 %
17.03.2019 18:18 7,1 C 6,1 C 6,1 C 79 % 1004,6 hPa 0,0 l/m 0 min 0 min 19 W/m 12,9 km/h (3 Bft) 97,87 %
17.03.2019 18:20 7,1 C 6,1 C 6,1 C 79 % 1004,6 hPa 0,0 l/m 0 min 0 min 16 W/m 6,4 km/h (2 Bft) 97,83 %
17.03.2019 18:22 7,1 C 6,1 C 5,6 C 80 % 1004,7 hPa 0,0 l/m 0 min 0 min 13 W/m 6,4 km/h (2 Bft) 95,74 %
17.03.2019 18:24 7,1 C 6,1 C 5,6 C 80 % 1004,7 hPa 0,0 l/m 0 min 0 min 10 W/m 9,7 km/h (2 Bft) 97,87 %
17.03.2019 18:26 7,0 C 6,1 C 5,6 C 80 % 1004,7 hPa 0,0 l/m 0 min 0 min 8 W/m 9,7 km/h (2 Bft) 97,87 %
17.03.2019 18:28 7,0 C 6,1 C 5,6 C 80 % 1004,8 hPa 0,0 l/m 0 min 0 min 6 W/m 9,7 km/h (2 Bft) 95,74 %
17.03.2019 18:30 6,9 C 6,1 C 5,6 C 80 % 1004,9 hPa 0,0 l/m 0 min 0 min 2 W/m 6,4 km/h (2 Bft) 95,74 %
17.03.2019 18:32 6,9 C 6,1 C 5,6 C 80 % 1005,0 hPa 0,0 l/m 0 min 0 min 0 W/m 9,7 km/h (2 Bft) 97,83 %
17.03.2019 18:34 6,9 C 6,1 C 5,6 C 80 % 1005,0 hPa 0,0 l/m 0 min 0 min 0 W/m 9,7 km/h (2 Bft) 95,74 %
17.03.2019 18:36 6,9 C 6,1 C 5,6 C 80 % 1005,1 hPa 0,0 l/m 0 min 0 min 0 W/m 6,4 km/h (2 Bft) 97,87 %
17.03.2019 18:38 6,9 C 6,1 C 5,6 C 80 % 1005,2 hPa 0,0 l/m 0 min 2 min 0 W/m 9,7 km/h (2 Bft) 95,74 %
17.03.2019 18:40 6,8 C 5,6 C 5,0 C 80 % 1005,3 hPa 0,0 l/m 0 min 2 min 0 W/m 12,9 km/h (3 Bft) 95,74 %
17.03.2019 18:42 6,8 C 5,0 C 4,4 C 80 % 1005,3 hPa 0,0 l/m 0 min 2 min 0 W/m 9,7 km/h (2 Bft) 95,65 %
17.03.2019 18:44 6,8 C 5,0 C 4,4 C 81 % 1005,4 hPa 0,0 l/m 0 min 2 min 0 W/m 9,7 km/h (2 Bft) 95,74 %
17.03.2019 18:46 6,8 C 5,0 C 4,4 C 81 % 1005,4 hPa 0,0 l/m 0 min 2 min 0 W/m 16,1 km/h (3 Bft) 95,74 %
17.03.2019 18:48 6,7 C 5,0 C 3,9 C 81 % 1005,4 hPa 0,0 l/m 0 min 2 min 0 W/m 12,9 km/h (3 Bft) 95,74 %
17.03.2019 18:50 6,7 C 5,0 C 3,9 C 81 % 1005,5 hPa 0,0 l/m 0 min 2 min 0 W/m 19,3 km/h (3 Bft) 95,74 %
17.03.2019 18:52 6,6 C 5,0 C 3,9 C 82 % 1005,5 hPa 0,0 l/m 0 min 2 min 0 W/m 12,9 km/h (3 Bft) 95,74 %
17.03.2019 18:54 6,6 C 4,4 C 3,9 C 82 % 1005,6 hPa 0,0 l/m 0 min 2 min 0 W/m 22,5 km/h (4 Bft) 93,48 %
17.03.2019 18:56 6,4 C 4,4 C 3,9 C 82 % 1005,6 hPa 0,0 l/m 0 min 2 min 0 W/m 22,5 km/h (4 Bft) 95,74 %
17.03.2019 18:58 6,4 C 4,4 C 3,9 C 82 % 1005,6 hPa 0,0 l/m 0 min 2 min 0 W/m 12,9 km/h (3 Bft) 95,74 %
17.03.2019 19:00 6,4 C 4,4 C 3,9 C 82 % 1005,7 hPa 0,0 l/m 0 min 2 min 0 W/m 9,7 km/h (2 Bft) 93,62 %
17.03.2019 19:02 6,3 C 4,4 C 3,9 C 82 % 1005,7 hPa 0,0 l/m 0 min 2 min 0 W/m 12,9 km/h (3 Bft) 95,74 %
17.03.2019 19:04 6,2 C 4,4 C 3,9 C 82 % 1005,7 hPa 0,0 l/m 0 min 2 min 0 W/m 16,1 km/h (3 Bft) 97,87 %
17.03.2019 19:06 6,1 C 4,4 C 3,3 C 82 % 1005,7 hPa 0,0 l/m 0 min 2 min 0 W/m 16,1 km/h (3 Bft) 93,48 %
17.03.2019 19:08 6,0 C 4,4 C 3,3 C 81 % 1005,8 hPa 0,0 l/m 0 min 2 min 0 W/m 12,9 km/h (3 Bft) 95,74 %
17.03.2019 19:10 5,9 C 4,4 C 3,9 C 81 % 1005,7 hPa 0,0 l/m 0 min 2 min 0 W/m 16,1 km/h (3 Bft) 93,62 %
17.03.2019 19:12 5,9 C 4,4 C 3,9 C 80 % 1005,8 hPa 0,0 l/m 0 min 2 min 0 W/m 25,7 km/h (4 Bft) 95,74 %
17.03.2019 19:14 5,8 C 4,4 C 3,9 C 80 % 1005,8 hPa 0,0 l/m 0 min 2 min 0 W/m 12,9 km/h (3 Bft) 95,74 %
17.03.2019 19:16 5,7 C 5,0 C 3,9 C 80 % 1005,9 hPa 0,0 l/m 0 min 2 min 0 W/m 16,1 km/h (3 Bft) 95,74 %
17.03.2019 19:18 5,7 C 5,0 C 3,9 C 80 % 1005,8 hPa 0,0 l/m 0 min 2 min 0 W/m 32,2 km/h (5 Bft) 95,65 %
17.03.2019 19:20 5,6 C 5,0 C 3,9 C 79 % 1005,9 hPa 0,0 l/m 0 min 2 min 0 W/m 22,5 km/h (4 Bft) 95,74 %
17.03.2019 19:22 5,6 C 5,0 C 3,9 C 79 % 1005,9 hPa 0,0 l/m 0 min 2 min 0 W/m 19,3 km/h (3 Bft) 95,74 %
17.03.2019 19:24 5,6 C 4,4 C 3,9 C 79 % 1006,0 hPa 0,0 l/m 0 min 2 min 0 W/m 9,7 km/h (2 Bft) 95,74 %
17.03.2019 19:26 5,5 C 4,4 C 3,9 C 80 % 1006,1 hPa 0,0 l/m 0 min 2 min 0 W/m 9,7 km/h (2 Bft) 89,36 %
17.03.2019 19:28 5,5 C 4,4 C 3,9 C 80 % 1006,2 hPa 0,0 l/m 0 min 2 min 0 W/m 19,3 km/h (3 Bft) 100,00 %
17.03.2019 19:30 5,4 C 4,4 C 3,9 C 80 % 1006,2 hPa 0,0 l/m 0 min 2 min 0 W/m 12,9 km/h (3 Bft) 100,00 %
17.03.2019 19:32 5,4 C 4,4 C 3,9 C 80 % 1006,2 hPa 0,0 l/m 0 min 2 min 0 W/m 12,9 km/h (3 Bft) 97,87 %
17.03.2019 19:34 5,4 C 4,4 C 3,9 C 80 % 1006,3 hPa 0,0 l/m 0 min 2 min 0 W/m 9,7 km/h (2 Bft) 97,87 %
17.03.2019 19:36 5,3 C 4,4 C 3,9 C 80 % 1006,3 hPa 0,0 l/m 0 min 2 min 0 W/m 9,7 km/h (2 Bft) 100,00 %
17.03.2019 19:38 5,3 C 4,4 C 3,9 C 80 % 1006,3 hPa 0,0 l/m 0 min 2 min 0 W/m 9,7 km/h (2 Bft) 100,00 %
17.03.2019 19:40 5,2 C 4,4 C 3,9 C 80 % 1006,4 hPa 0,0 l/m 0 min 2 min 0 W/m 19,3 km/h (3 Bft) 100,00 %
17.03.2019 19:42 5,2 C 4,4 C 3,9 C 80 % 1006,4 hPa 0,0 l/m 0 min 2 min 0 W/m 12,9 km/h (3 Bft) 97,83 %
17.03.2019 19:44 5,2 C 4,4 C 3,9 C 80 % 1006,5 hPa 0,0 l/m 0 min 2 min 0 W/m 25,7 km/h (4 Bft) 97,87 %
17.03.2019 19:46 5,1 C 4,4 C 3,9 C 81 % 1006,6 hPa 0,0 l/m 0 min 0 min 0 W/m 12,9 km/h (3 Bft) 100,00 %
17.03.2019 19:48 5,1 C 4,4 C 3,9 C 80 % 1006,5 hPa 0,0 l/m 0 min 0 min 0 W/m 12,9 km/h (3 Bft) 100,00 %
17.03.2019 19:50 5,1 C 3,9 C 3,9 C 81 % 1006,6 hPa 0,0 l/m 0 min 0 min 0 W/m 16,1 km/h (3 Bft) 97,87 %
17.03.2019 19:52 5,0 C 3,9 C 3,9 C 81 % 1006,6 hPa 0,0 l/m 0 min 0 min 0 W/m 16,1 km/h (3 Bft) 95,65 %
17.03.2019 19:54 4,9 C 3,9 C 3,9 C 81 % 1006,7 hPa 0,0 l/m 0 min 2 min 0 W/m 16,1 km/h (3 Bft) 97,87 %
17.03.2019 19:56 4,9 C 3,9 C 3,9 C 81 % 1006,7 hPa 0,0 l/m 0 min 2 min 0 W/m 22,5 km/h (4 Bft) 97,87 %
17.03.2019 19:58 4,8 C 3,9 C 3,3 C 81 % 1006,8 hPa 0,0 l/m 0 min 2 min 0 W/m 16,1 km/h (3 Bft) 97,87 %
17.03.2019 20:00 4,8 C 3,9 C 3,3 C 81 % 1006,8 hPa 0,0 l/m 0 min 0 min 0 W/m 12,9 km/h (3 Bft) 93,62 %
17.03.2019 20:02 4,8 C 3,9 C 3,3 C 82 % 1006,8 hPa 0,0 l/m 0 min 0 min 0 W/m 19,3 km/h (3 Bft) 97,87 %
17.03.2019 20:04 4,7 C 3,9 C 3,3 C 82 % 1006,9 hPa 0,0 l/m 0 min 0 min 0 W/m 25,7 km/h (4 Bft) 95,65 %
17.03.2019 20:06 4,7 C 3,9 C 3,3 C 82 % 1006,8 hPa 0,0 l/m 0 min 2 min 0 W/m 22,5 km/h (4 Bft) 97,87 %
17.03.2019 20:08 4,7 C 3,9 C 3,3 C 82 % 1006,9 hPa 0,0 l/m 0 min 0 min 0 W/m 16,1 km/h (3 Bft) 97,87 %
17.03.2019 20:10 4,6 C 3,9 C 3,3 C 83 % 1006,9 hPa 0,0 l/m 0 min 2 min 0 W/m 19,3 km/h (3 Bft) 97,87 %
17.03.2019 20:12 4,6 C 3,9 C 3,3 C 83 % 1006,9 hPa 0,0 l/m 0 min 0 min 0 W/m 16,1 km/h (3 Bft) 97,87 %
17.03.2019 20:14 4,5 C 3,3 C 3,3 C 83 % 1007,1 hPa 0,0 l/m 0 min 0 min 0 W/m 35,4 km/h (5 Bft) 95,74 %
17.03.2019 20:16 4,5 C 3,9 C 3,3 C 83 % 1007,1 hPa 0,0 l/m 0 min 2 min 0 W/m 22,5 km/h (4 Bft) 95,65 %
17.03.2019 20:18 4,4 C 3,3 C 3,3 C 84 % 1007,1 hPa 0,0 l/m 0 min 0 min 0 W/m 19,3 km/h (3 Bft) 95,74 %
17.03.2019 20:20 4,4 C 3,3 C 3,3 C 84 % 1007,1 hPa 0,0 l/m 0 min 0 min 0 W/m 22,5 km/h (4 Bft) 97,87 %
17.03.2019 20:22 4,4 C 3,3 C 3,3 C 84 % 1007,2 hPa 0,0 l/m 0 min 0 min 0 W/m 22,5 km/h (4 Bft) 95,74 %
17.03.2019 20:24 4,3 C 3,3 C 3,3 C 84 % 1007,2 hPa 0,0 l/m 0 min 0 min 0 W/m 22,5 km/h (4 Bft) 97,87 %
17.03.2019 20:26 4,3 C 3,3 C 3,3 C 84 % 1007,3 hPa 0,0 l/m 0 min 0 min 0 W/m 16,1 km/h (3 Bft) 97,87 %
17.03.2019 20:28 4,3 C 3,3 C 2,8 C 85 % 1007,3 hPa 0,0 l/m 0 min 2 min 0 W/m 12,9 km/h (3 Bft) 95,65 %
17.03.2019 20:30 4,2 C 3,3 C 2,8 C 85 % 1007,3 hPa 0,0 l/m 0 min 0 min 0 W/m 16,1 km/h (3 Bft) 95,74 %
17.03.2019 20:32 4,2 C 3,3 C 2,8 C 85 % 1007,3 hPa 0,0 l/m 0 min 0 min 0 W/m 22,5 km/h (4 Bft) 97,87 %
17.03.2019 20:34 4,2 C 3,3 C 2,8 C 85 % 1007,3 hPa 0,0 l/m 0 min 0 min 0 W/m 9,7 km/h (2 Bft) 97,87 %
17.03.2019 20:36 4,1 C 3,3 C 2,8 C 85 % 1007,3 hPa 0,0 l/m 0 min 0 min 0 W/m 12,9 km/h (3 Bft) 97,87 %
17.03.2019 20:38 4,1 C 3,3 C 2,8 C 85 % 1007,2 hPa 0,0 l/m 0 min 0 min 0 W/m 22,5 km/h (4 Bft) 100,00 %
17.03.2019 20:40 4,1 C 2,8 C 2,8 C 85 % 1007,3 hPa 0,0 l/m 0 min 0 min 0 W/m 9,7 km/h (2 Bft) 100,00 %
17.03.2019 20:42 4,0 C 2,8 C 2,8 C 86 % 1007,3 hPa 0,0 l/m 0 min 0 min 0 W/m 19,3 km/h (3 Bft) 100,00 %
17.03.2019 20:44 4,0 C 2,8 C 2,8 C 86 % 1007,3 hPa 0,0 l/m 0 min 0 min 0 W/m 16,1 km/h (3 Bft) 100,00 %
17.03.2019 20:46 3,9 C 2,8 C 2,8 C 86 % 1007,3 hPa 0,0 l/m 0 min 0 min 0 W/m 12,9 km/h (3 Bft) 100,00 %
17.03.2019 20:48 3,9 C 2,8 C 2,8 C 86 % 1007,3 hPa 0,0 l/m 0 min 0 min 0 W/m 9,7 km/h (2 Bft) 100,00 %
17.03.2019 20:50 3,9 C 2,8 C 2,8 C 86 % 1007,3 hPa 0,0 l/m 0 min 0 min 0 W/m 16,1 km/h (3 Bft) 100,00 %
17.03.2019 20:52 3,8 C 2,8 C 2,8 C 86 % 1007,3 hPa 0,0 l/m 0 min 0 min 0 W/m 12,9 km/h (3 Bft) 100,00 %
17.03.2019 20:54 3,8 C 2,8 C 2,8 C 86 % 1007,3 hPa 0,0 l/m 0 min 0 min 0 W/m 12,9 km/h (3 Bft) 100,00 %
17.03.2019 20:56 3,8 C 2,8 C 2,8 C 86 % 1007,3 hPa 0,0 l/m 0 min 0 min 0 W/m 19,3 km/h (3 Bft) 100,00 %
17.03.2019 20:58 3,8 C 2,8 C 2,2 C 87 % 1007,4 hPa 0,0 l/m 0 min 0 min 0 W/m 12,9 km/h (3 Bft) 100,00 %
17.03.2019 21:00 3,7 C 2,8 C 2,2 C 87 % 1007,4 hPa 0,0 l/m 0 min 0 min 0 W/m 12,9 km/h (3 Bft) 100,00 %
17.03.2019 21:02 3,7 C 2,8 C 2,8 C 87 % 1007,4 hPa 0,0 l/m 0 min 0 min 0 W/m 12,9 km/h (3 Bft) 100,00 %
17.03.2019 21:04 3,7 C 2,8 C 2,2 C 87 % 1007,4 hPa 0,0 l/m 0 min 0 min 0 W/m 9,7 km/h (2 Bft) 100,00 %
17.03.2019 21:06 3,7 C 2,8 C 2,2 C 87 % 1007,4 hPa 0,0 l/m 0 min 0 min 0 W/m 12,9 km/h (3 Bft) 100,00 %
17.03.2019 21:08 3,7 C 2,8 C 2,2 C 87 % 1007,5 hPa 0,0 l/m 0 min 0 min 0 W/m 16,1 km/h (3 Bft) 100,00 %
17.03.2019 21:10 3,6 C 2,8 C 2,2 C 87 % 1007,4 hPa 0,0 l/m 0 min 0 min 0 W/m 19,3 km/h (3 Bft) 100,00 %
17.03.2019 21:12 3,6 C 2,8 C 2,2 C 87 % 1007,4 hPa 0,0 l/m 0 min 0 min 0 W/m 16,1 km/h (3 Bft) 97,87 %
17.03.2019 21:14 3,6 C 2,8 C 2,2 C 87 % 1007,4 hPa 0,0 l/m 0 min 0 min 0 W/m 12,9 km/h (3 Bft) 100,00 %
17.03.2019 21:16 3,6 C 2,8 C 2,2 C 87 % 1007,5 hPa 0,0 l/m 0 min 0 min 0 W/m 9,7 km/h (2 Bft) 100,00 %
17.03.2019 21:18 3,6 C 2,8 C 2,2 C 88 % 1007,5 hPa 0,0 l/m 0 min 0 min 0 W/m 9,7 km/h (2 Bft) 100,00 %
17.03.2019 21:20 3,5 C 2,8 C 2,2 C 88 % 1007,6 hPa 0,0 l/m 0 min 0 min 0 W/m 12,9 km/h (3 Bft) 100,00 %
17.03.2019 21:22 3,5 C 2,8 C 2,2 C 88 % 1007,6 hPa 0,0 l/m 0 min 0 min 0 W/m 16,1 km/h (3 Bft) 100,00 %
17.03.2019 21:24 3,5 C 2,8 C 2,2 C 88 % 1007,6 hPa 0,0 l/m 0 min 0 min 0 W/m 16,1 km/h (3 Bft) 97,87 %
17.03.2019 21:26 3,4 C 2,8 C 2,2 C 88 % 1007,6 hPa 0,0 l/m 0 min 0 min 0 W/m 12,9 km/h (3 Bft) 100,00 %
17.03.2019 21:28 3,4 C 2,8 C 2,2 C 88 % 1007,7 hPa 0,0 l/m 0 min 0 min 0 W/m 16,1 km/h (3 Bft) 100,00 %
17.03.2019 21:30 3,4 C 2,8 C 2,2 C 88 % 1007,7 hPa 0,0 l/m 0 min 0 min 0 W/m 22,5 km/h (4 Bft) 100,00 %
17.03.2019 21:32 3,4 C 2,8 C 2,2 C 88 % 1007,7 hPa 0,0 l/m 0 min 0 min 0 W/m 9,7 km/h (2 Bft) 100,00 %
17.03.2019 21:34 3,4 C 2,8 C 2,2 C 88 % 1007,7 hPa 0,0 l/m 0 min 0 min 0 W/m 22,5 km/h (4 Bft) 97,87 %
17.03.2019 21:36 3,4 C 2,8 C 2,2 C 88 % 1007,7 hPa 0,0 l/m 0 min 0 min 0 W/m 12,9 km/h (3 Bft) 100,00 %
17.03.2019 21:38 3,4 C 2,8 C 2,2 C 88 % 1007,7 hPa 0,0 l/m 0 min 0 min 0 W/m 12,9 km/h (3 Bft) 100,00 %
17.03.2019 21:40 3,4 C 2,8 C 2,2 C 88 % 1007,7 hPa 0,0 l/m 0 min 0 min 0 W/m 9,7 km/h (2 Bft) 97,87 %
17.03.2019 21:42 3,4 C 2,8 C 2,2 C 88 % 1007,7 hPa 0,0 l/m 0 min 0 min 0 W/m 12,9 km/h (3 Bft) 97,87 %
17.03.2019 21:44 3,4 C 2,8 C 2,2 C 88 % 1007,7 hPa 0,0 l/m 0 min 0 min 0 W/m 16,1 km/h (3 Bft) 97,87 %
17.03.2019 21:46 3,4 C 2,8 C 2,2 C 88 % 1007,7 hPa 0,0 l/m 0 min 0 min 0 W/m 9,7 km/h (2 Bft) 95,74 %
17.03.2019 21:48 3,4 C 2,8 C 2,2 C 88 % 1007,7 hPa 0,0 l/m 0 min 0 min 0 W/m 12,9 km/h (3 Bft) 91,49 %
17.03.2019 21:50 3,4 C 2,8 C 2,2 C 88 % 1007,8 hPa 0,0 l/m 0 min 0 min 0 W/m 19,3 km/h (3 Bft) 97,83 %
17.03.2019 21:52 3,4 C 2,8 C 2,2 C 88 % 1007,7 hPa 0,0 l/m 0 min 0 min 0 W/m 12,9 km/h (3 Bft) 95,74 %
17.03.2019 21:54 3,4 C 2,8 C 2,2 C 88 % 1007,7 hPa 0,0 l/m 0 min 0 min 0 W/m 16,1 km/h (3 Bft) 97,87 %
17.03.2019 21:56 3,4 C 2,8 C 2,2 C 88 % 1007,9 hPa 0,0 l/m 0 min 0 min 0 W/m 6,4 km/h (2 Bft) 97,87 %
17.03.2019 21:58 3,4 C 2,8 C 2,2 C 87 % 1007,9 hPa 0,0 l/m 0 min 0 min 0 W/m 9,7 km/h (2 Bft) 97,87 %
17.03.2019 22:00 3,4 C 2,8 C 2,2 C 87 % 1007,9 hPa 0,0 l/m 0 min 0 min 0 W/m 9,7 km/h (2 Bft) 97,87 %
17.03.2019 22:02 3,4 C 2,8 C 2,2 C 87 % 1008,0 hPa 0,0 l/m 0 min 0 min 0 W/m 22,5 km/h (4 Bft) 97,83 %
17.03.2019 22:04 3,4 C 2,8 C 2,2 C 87 % 1008,1 hPa 0,0 l/m 0 min 0 min 0 W/m 6,4 km/h (2 Bft) 97,87 %
17.03.2019 22:06 3,4 C 2,8 C 2,2 C 88 % 1008,2 hPa 0,0 l/m 0 min 0 min 0 W/m 9,7 km/h (2 Bft) 95,74 %
17.03.2019 22:08 3,4 C 2,8 C 2,2 C 87 % 1008,2 hPa 0,0 l/m 0 min 0 min 0 W/m 9,7 km/h (2 Bft) 97,87 %
17.03.2019 22:10 3,4 C 2,8 C 2,2 C 87 % 1008,2 hPa 0,0 l/m 0 min 0 min 0 W/m 22,5 km/h (4 Bft) 95,74 %
17.03.2019 22:12 3,4 C 2,8 C 2,8 C 87 % 1008,1 hPa 0,0 l/m 0 min 0 min 0 W/m 22,5 km/h (4 Bft) 97,87 %
17.03.2019 22:14 3,4 C 3,3 C 2,8 C 87 % 1008,2 hPa 0,0 l/m 0 min 0 min 0 W/m 16,1 km/h (3 Bft) 97,83 %
17.03.2019 22:16 3,4 C 3,3 C 2,8 C 87 % 1008,2 hPa 0,0 l/m 0 min 0 min 0 W/m 12,9 km/h (3 Bft) 95,74 %
17.03.2019 22:18 3,4 C 3,3 C 2,8 C 87 % 1008,3 hPa 0,0 l/m 0 min 0 min 0 W/m 12,9 km/h (3 Bft) 93,62 %
17.03.2019 22:20 3,4 C 3,3 C 2,8 C 87 % 1008,2 hPa 0,0 l/m 0 min 0 min 0 W/m 29,0 km/h (5 Bft) 93,62 %
17.03.2019 22:22 3,5 C 3,3 C 2,8 C 87 % 1008,3 hPa 0,0 l/m 0 min 0 min 0 W/m 35,4 km/h (5 Bft) 95,74 %
17.03.2019 22:24 3,5 C 3,3 C 2,8 C 87 % 1008,3 hPa 0,0 l/m 0 min 0 min 0 W/m 22,5 km/h (4 Bft) 95,74 %
17.03.2019 22:26 3,6 C 3,3 C 2,8 C 87 % 1008,3 hPa 0,0 l/m 0 min 0 min 0 W/m 12,9 km/h (3 Bft) 97,83 %
17.03.2019 22:28 3,6 C 3,3 C 2,8 C 87 % 1008,4 hPa 0,0 l/m 0 min 0 min 0 W/m 19,3 km/h (3 Bft) 97,87 %
17.03.2019 22:30 3,6 C 3,3 C 2,8 C 87 % 1008,5 hPa 0,0 l/m 0 min 0 min 0 W/m 16,1 km/h (3 Bft) 93,62 %
17.03.2019 22:32 3,6 C 2,8 C 2,8 C 87 % 1008,5 hPa 0,0 l/m 0 min 0 min 0 W/m 16,1 km/h (3 Bft) 95,74 %
17.03.2019 22:34 3,6 C 2,8 C 2,8 C 87 % 1008,5 hPa 0,0 l/m 0 min 0 min 0 W/m 19,3 km/h (3 Bft) 95,74 %
17.03.2019 22:36 3,6 C 2,8 C 2,2 C 87 % 1008,5 hPa 0,0 l/m 0 min 0 min 0 W/m 19,3 km/h (3 Bft) 95,74 %
17.03.2019 22:38 3,6 C 2,8 C 2,2 C 87 % 1008,5 hPa 0,0 l/m 0 min 0 min 0 W/m 19,3 km/h (3 Bft) 93,48 %
17.03.2019 22:40 3,6 C 2,8 C 2,2 C 88 % 1008,6 hPa 0,0 l/m 0 min 0 min 0 W/m 16,1 km/h (3 Bft) 95,74 %
17.03.2019 22:42 3,5 C 2,8 C 2,2 C 88 % 1008,6 hPa 0,0 l/m 0 min 0 min 0 W/m 12,9 km/h (3 Bft) 91,49 %
17.03.2019 22:44 3,5 C 2,8 C 2,2 C 88 % 1008,5 hPa 0,0 l/m 0 min 0 min 0 W/m 16,1 km/h (3 Bft) 93,62 %
17.03.2019 22:46 3,5 C 2,8 C 2,2 C 88 % 1008,5 hPa 0,0 l/m 0 min 0 min 0 W/m 12,9 km/h (3 Bft) 95,74 %
17.03.2019 22:48 3,4 C 2,8 C 2,2 C 88 % 1008,5 hPa 0,0 l/m 0 min 0 min 0 W/m 16,1 km/h (3 Bft) 91,49 %
17.03.2019 22:50 3,4 C 2,8 C 2,2 C 88 % 1008,4 hPa 0,0 l/m 0 min 0 min 0 W/m 12,9 km/h (3 Bft) 95,65 %
17.03.2019 22:52 3,4 C 2,8 C 2,2 C 88 % 1008,5 hPa 0,0 l/m 0 min 0 min 0 W/m 16,1 km/h (3 Bft) 95,74 %
17.03.2019 22:54 3,4 C 2,8 C 2,2 C 88 % 1008,4 hPa 0,0 l/m 0 min 0 min 0 W/m 19,3 km/h (3 Bft) 95,74 %
17.03.2019 22:56 3,4 C 2,8 C 2,2 C 88 % 1008,5 hPa 0,0 l/m 0 min 0 min 0 W/m 22,5 km/h (4 Bft) 97,87 %
17.03.2019 22:58 3,4 C 2,8 C 2,2 C 88 % 1008,5 hPa 0,0 l/m 0 min 0 min 0 W/m 12,9 km/h (3 Bft) 95,74 %
17.03.2019 23:00 3,3 C 2,8 C 2,2 C 88 % 1008,5 hPa 0,0 l/m 0 min 0 min 0 W/m 16,1 km/h (3 Bft) 97,83 %
17.03.2019 23:02 3,3 C 2,8 C 2,2 C 88 % 1008,6 hPa 0,0 l/m 0 min 0 min 0 W/m 16,1 km/h (3 Bft) 95,74 %
17.03.2019 23:04 3,3 C 2,8 C 2,2 C 88 % 1008,7 hPa 0,0 l/m 0 min 0 min 0 W/m 19,3 km/h (3 Bft) 97,87 %
17.03.2019 23:06 3,3 C 2,8 C 2,2 C 88 % 1008,7 hPa 0,0 l/m 0 min 0 min 0 W/m 9,7 km/h (2 Bft) 97,87 %
17.03.2019 23:08 3,3 C 2,8 C 2,2 C 88 % 1008,7 hPa 0,0 l/m 0 min 0 min 0 W/m 12,9 km/h (3 Bft) 97,87 %
17.03.2019 23:10 3,3 C 2,8 C 2,2 C 89 % 1008,7 hPa 0,0 l/m 0 min 0 min 0 W/m 9,7 km/h (2 Bft) 97,87 %
17.03.2019 23:12 3,3 C 2,8 C 2,2 C 89 % 1008,7 hPa 0,0 l/m 0 min 0 min 0 W/m 9,7 km/h (2 Bft) 97,83 %
17.03.2019 23:14 3,2 C 2,2 C 2,2 C 88 % 1008,7 hPa 0,0 l/m 0 min 0 min 0 W/m 16,1 km/h (3 Bft) 97,87 %
17.03.2019 23:16 3,2 C 2,2 C 2,2 C 89 % 1008,8 hPa 0,0 l/m 0 min 0 min 0 W/m 12,9 km/h (3 Bft) 95,74 %
17.03.2019 23:18 3,2 C 2,2 C 2,2 C 89 % 1008,8 hPa 0,0 l/m 0 min 0 min 0 W/m 6,4 km/h (2 Bft) 97,87 %
17.03.2019 23:20 3,2 C 2,2 C 2,2 C 89 % 1008,8 hPa 0,0 l/m 0 min 0 min 0 W/m 6,4 km/h (2 Bft) 97,87 %
17.03.2019 23:22 3,2 C 2,2 C 2,2 C 89 % 1008,9 hPa 0,0 l/m 0 min 0 min 0 W/m 9,7 km/h (2 Bft) 97,87 %
17.03.2019 23:24 3,2 C 2,2 C 2,2 C 89 % 1008,8 hPa 0,0 l/m 0 min 0 min 0 W/m 9,7 km/h (2 Bft) 97,83 %
17.03.2019 23:26 3,2 C 2,8 C 2,2 C 89 % 1008,8 hPa 0,0 l/m 0 min 0 min 0 W/m 16,1 km/h (3 Bft) 97,87 %
17.03.2019 23:28 3,2 C 2,8 C 2,2 C 89 % 1008,8 hPa 0,0 l/m 0 min 0 min 0 W/m 19,3 km/h (3 Bft) 95,74 %
17.03.2019 23:30 3,2 C 2,8 C 2,2 C 89 % 1008,9 hPa 0,0 l/m 0 min 0 min 0 W/m 12,9 km/h (3 Bft) 97,87 %
17.03.2019 23:32 3,2 C 2,8 C 2,2 C 89 % 1008,8 hPa 0,0 l/m 0 min 0 min 0 W/m 12,9 km/h (3 Bft) 97,87 %
17.03.2019 23:34 3,2 C 2,8 C 2,2 C 89 % 1008,9 hPa 0,0 l/m 0 min 0 min 0 W/m 12,9 km/h (3 Bft) 100,00 %
17.03.2019 23:36 3,1 C 2,8 C 2,2 C 89 % 1008,9 hPa 0,0 l/m 0 min 0 min 0 W/m 12,9 km/h (3 Bft) 97,83 %
17.03.2019 23:38 3,2 C 2,8 C 2,2 C 89 % 1008,8 hPa 0,0 l/m 0 min 0 min 0 W/m 6,4 km/h (2 Bft) 100,00 %
17.03.2019 23:40 3,2 C 2,8 C 2,2 C 89 % 1008,8 hPa 0,0 l/m 0 min 0 min 0 W/m 9,7 km/h (2 Bft) 97,87 %
17.03.2019 23:42 3,1 C 2,2 C 2,2 C 89 % 1008,8 hPa 0,0 l/m 0 min 0 min 0 W/m 12,9 km/h (3 Bft) 100,00 %
17.03.2019 23:44 3,1 C 2,8 C 2,2 C 89 % 1008,9 hPa 0,0 l/m 0 min 0 min 0 W/m 12,9 km/h (3 Bft) 97,87 %
17.03.2019 23:46 3,1 C 2,8 C 2,2 C 89 % 1008,8 hPa 0,0 l/m 0 min 0 min 0 W/m 12,9 km/h (3 Bft) 100,00 %
17.03.2019 23:48 3,1 C 2,8 C 2,2 C 89 % 1008,9 hPa 0,0 l/m 0 min 0 min 0 W/m 19,3 km/h (3 Bft) 100,00 %
17.03.2019 23:50 3,2 C 2,8 C 2,2 C 89 % 1008,9 hPa 0,0 l/m 0 min 0 min 0 W/m 12,9 km/h (3 Bft) 97,87 %
17.03.2019 23:52 3,2 C 2,8 C 2,2 C 89 % 1008,9 hPa 0,0 l/m 0 min 0 min 0 W/m 9,7 km/h (2 Bft) 100,00 %
17.03.2019 23:54 3,1 C 2,8 C 2,2 C 89 % 1008,9 hPa 0,0 l/m 0 min 0 min 0 W/m 9,7 km/h (2 Bft) 97,87 %
17.03.2019 23:56 3,1 C 2,8 C 2,2 C 89 % 1008,9 hPa 0,0 l/m 0 min 0 min 0 W/m 9,7 km/h (2 Bft) 100,00 %
17.03.2019 23:58 3,2 C 2,8 C 2,2 C 89 % 1008,9 hPa 0,0 l/m 0 min 0 min 0 W/m 22,5 km/h (4 Bft) 100,00 %
_ Min-Zeit 23:36 23:14 20:58 13:18 05:20 - - - - 09:20 19:26
Minimum _ 3,1 C 2,2 C 2,2 C 70 % 995,6 hPa - - - - 3,2 km/h (1 Bft) 89,36 %
_ Max-Zeit 00:10 11:48 12:50 09:46 23:22 08:38 09:28 07:44 11:58 07:22 00:18
Maximum _ 11,2 C 16,7 C 15,6 C 94 % 1008,9 hPa 0,4 l/m 2 min 5 min 837 W/m 64,4 km/h
SO (8 Bft)
100,00 %
Durchschnitt _ 8,0 C 7,7 C 6,8 C 83 % 1001,1 hPa #2,8 l/m #2:40 h #7:13 h 205 W/m 20,9 km/h (4 Bft) 97,50 %
© 2019 W. Hausmann